EW4595 Weather Reports


Display with metric or nautical units.
time (UTC)temp
F
wind
direction
speed
MPH
gust
MPH
rain 1hr
in
rain 24hr
in
rain mn
in
humidity
%
barometer
mb
20260903184103 69 204 8.0 13.0 0.00 0.00 0.00 38 1015.0
20260903184004 69 202 7.0 14.0 0.00 0.00 0.00 38 1015.1
20260903183903 69 211 5.0 14.0 0.00 0.00 0.00 39 1015.0
20260903183817 68 222 8.0 14.0 0.00 0.00 0.00 38 1015.2
20260903183803 68 225 8.0 14.0 0.00 0.00 0.00 38 1015.2
20260903183703 69 243 5.0 14.0 0.00 0.00 0.00 38 1015.2
20260903183503 69 260 6.0 11.0 0.00 0.00 0.00 39 1015.3
20260903183418 69 257 8.0 11.0 0.00 0.00 0.00 38 1015.4
20260903183403 69 255 8.0 11.0 0.00 0.00 0.00 38 1015.4
20260903183303 69 245 5.0 11.0 0.00 0.00 0.00 39 1015.1
20260903183217 69 237 5.0 11.0 0.00 0.00 0.00 40 1015.1
20260903183103 68 228 6.0 11.0 0.00 0.00 0.00 39 1015.1
20260903182903 68 218 8.0 14.0 0.00 0.00 0.00 39 1015.0
20260903182803 69 218 8.0 14.0 0.00 0.00 0.00 38 1015.0
20260903182704 69 219 6.0 14.0 0.00 0.00 0.00 39 1015.3
20260903182616 69 222 4.0 14.0 0.00 0.00 0.00 38 1015.1
20260903182603 69 224 4.0 14.0 0.00 0.00 0.00 38 1015.1
20260903182503 68 229 4.0 14.0 0.00 0.00 0.00 39 1015.1
20260903182306 68 251 5.0 15.0 0.00 0.00 0.00 38 1015.3
20260903182203 69 252 4.0 15.0 0.00 0.00 0.00 38 1015.3
20260903182117 68 257 5.0 15.0 0.00 0.00 0.00 38 1015.5
20260903182103 68 261 5.0 15.0 0.00 0.00 0.00 38 1015.5
20260903182003 68 260 4.0 16.0 0.00 0.00 0.00 37 1015.5
20260903181803 69 250 7.0 16.0 0.00 0.00 0.00 36 1015.5
20260903181703 69 254 6.0 16.0 0.00 0.00 0.00 37 1015.4
20260903181604 68 247 10.0 16.0 0.00 0.00 0.00 37 1015.1
20260903181503 68 241 10.0 16.0 0.00 0.00 0.00 38 1015.2
20260903181403 68 241 8.0 16.0 0.00 0.00 0.00 39 1015.3
20260903181303 68 241 11.0 16.0 0.00 0.00 0.00 38 1015.3
20260903181203 68 237 10.0 16.0 0.00 0.00 0.00 39 1015.3
20260903181103 69 223 7.0 14.0 0.00 0.00 0.00 39 1015.2
20260903181003 69 210 8.0 14.0 0.00 0.00 0.00 40 1015.4
20260903180904 68 212 5.0 15.0 0.00 0.00 0.00 40 1015.3
20260903180803 68 217 6.0 15.0 0.00 0.00 0.00 40 1015.4
20260903180703 68 217 5.0 15.0 0.00 0.00 0.00 40 1015.3
20260903180603 68 238 5.0 16.0 0.00 0.00 0.00 41 1015.3
20260903180503 68 249 8.0 16.0 0.00 0.00 0.00 40 1015.4
20260903180403 68 250 8.0 16.0 0.00 0.00 0.00 41 1015.2
20260903180303 69 248 5.0 16.0 0.00 0.00 0.00 40 1015.3
20260903180203 68 251 4.0 16.0 0.00 0.00 0.00 40 1015.2
20260903180003 68 254 6.0 11.0 0.00 0.00 0.00 40 1015.4
20260903175903 69 276 3.0 11.0 0.00 0.00 0.00 40 1015.3
20260903175803 69 274 4.0 11.0 0.00 0.00 0.00 40 1015.4
20260903175703 69 264 4.0 11.0 0.00 0.00 0.00 40 1015.3
20260903175603 68 256 4.0 11.0 0.00 0.00 0.00 40 1015.5
20260903175517 68 241 7.0 11.0 0.00 0.00 0.00 40 1015.5
20260903175503 68 237 7.0 11.0 0.00 0.00 0.00 40 1015.4
20260903175403 68 227 4.0 11.0 0.00 0.00 0.00 41 1015.4
20260903175203 68 225 6.0 11.0 0.00 0.00 0.00 41 1015.2
20260903175103 68 229 5.0 11.0 0.00 0.00 0.00 41 1015.4
20260903175003 68 237 8.0 13.0 0.00 0.00 0.00 41 1015.3
20260903174918 68 231 4.0 14.0 0.00 0.00 0.00 41 1015.2
20260903174903 68 229 4.0 14.0 0.00 0.00 0.00 41 1015.2
20260903174803 68 234 4.0 14.0 0.00 0.00 0.00 41 1015.3
20260903174618 68 230 6.0 14.0 0.00 0.00 0.00 41 1015.2
20260903174603 68 227 6.0 14.0 0.00 0.00 0.00 41 1015.2
20260903174503 68 222 8.0 14.0 0.00 0.00 0.00 41 1015.3
20260903174303 68 219 6.0 14.0 0.00 0.00 0.00 42 1015.2
20260903174203 68 225 9.0 14.0 0.00 0.00 0.00 42 1015.3
20260903174103 69 233 5.0 13.0 0.00 0.00 0.00 42 1015.5
20260903174003 68 231 5.0 13.0 0.00 0.00 0.00 42 1015.3
20260903173803 67 235 4.0 13.0 0.00 0.00 0.00 43 1015.2
20260903173705 67 227 6.0 13.0 0.00 0.00 0.00 44 1015.3
20260903173603 67 207 6.0 13.0 0.00 0.00 0.00 43 1015.2
20260903173503 67 219 7.0 13.0 0.00 0.00 0.00 43 1015.2
20260903173403 67 208 5.0 11.0 0.00 0.00 0.00 43 1015.2
20260903173303 67 215 4.0 11.0 0.00 0.00 0.00 43 1015.4
20260903173103 67 224 6.0 11.0 0.00 0.00 0.00 43 1015.4
20260903173003 67 218 4.0 11.0 0.00 0.00 0.00 43 1015.3
20260903172903 67 233 7.0 14.0 0.00 0.00 0.00 43 1015.4
20260903172803 67 244 7.0 14.0 0.00 0.00 0.00 43 1015.3
20260903172703 67 242 5.0 14.0 0.00 0.00 0.00 43 1015.5
20260903172603 67 251 4.0 14.0 0.00 0.00 0.00 44 1015.3
20260903172503 67 255 7.0 14.0 0.00 0.00 0.00 44 1015.3
20260903172403 67 248 8.0 14.0 0.00 0.00 0.00 43 1015.2
20260903172306 68 240 6.0 13.0 0.00 0.00 0.00 43 1015.3
20260903172203 68 232 4.0 14.0 0.00 0.00 0.00 43 1015.2
20260903172103 68 224 4.0 14.0 0.00 0.00 0.00 43 1015.0
20260903172003 67 215 4.0 14.0 0.00 0.00 0.00 43 1015.2
20260903171903 68 212 5.0 14.0 0.00 0.00 0.00 43 1015.4
20260903171803 67 207 8.0 14.0 0.00 0.00 0.00 43 1015.4
20260903171717 68 219 8.0 14.0 0.00 0.00 0.00 42 1015.4
20260903171703 68 220 8.0 14.0 0.00 0.00 0.00 42 1015.4
20260903171603 68 222 5.0 11.0 0.00 0.00 0.00 43 1015.3
20260903171403 68 238 8.0 11.0 0.00 0.00 0.00 42 1015.3
20260903171303 68 237 3.0 11.0 0.00 0.00 0.00 42 1015.3
20260903171203 68 223 5.0 11.0 0.00 0.00 0.00 43 1015.4
20260903171103 68 220 6.0 11.0 0.00 0.00 0.00 43 1015.3
20260903171005 68 211 4.0 11.0 0.00 0.00 0.00 43 1015.2
20260903170903 68 207 6.0 11.0 0.00 0.00 0.00 43 1015.4
20260903170809 68 219 5.0 11.0 0.00 0.00 0.00 43 1015.5
20260903170703 68 229 8.0 11.0 0.00 0.00 0.00 43 1015.4
20260903170603 69 229 8.0 11.0 0.00 0.00 0.00 42 1015.3
20260903170504 69 230 8.0 11.0 0.00 0.00 0.00 42 1015.8
20260903170405 69 228 6.0 11.0 0.00 0.00 0.00 43 1015.6
20260903170318 69 209 5.0 11.0 0.00 0.00 0.00 42 1015.3
20260903170303 69 207 6.0 9.0 0.00 0.00 0.00 43 1015.6
20260903170203 69 205 6.0 9.0 0.00 0.00 0.00 43 1015.3
20260903170003 69 209 5.0 14.0 0.00 0.00 0.00 43 1015.3
20260903165903 69 204 4.0 15.0 0.00 0.00 0.00 44 1015.6
20260903165703 69 220 5.0 15.0 0.00 0.00 0.00 45 1015.6
20260903165613 68 229 8.0 15.0 0.00 0.00 0.00 45 1015.4
20260903165503 68 230 8.0 15.0 0.00 0.00 0.00 45 1015.5
20260903165403 69 248 6.0 13.0 0.00 0.00 0.00 44 1015.6
20260903165305 69 260 2.0 13.0 0.00 0.00 0.00 45 1015.6
20260903165203 69 265 4.0 13.0 0.00 0.00 0.00 45 1015.3
20260903165103 69 235 4.0 13.0 0.00 0.00 0.00 44 1015.4
20260903165003 69 223 4.0 13.0 0.00 0.00 0.00 44 1015.3
20260903164903 69 216 5.0 11.0 0.00 0.00 0.00 44 1015.4
20260903164803 69 216 4.0 15.0 0.00 0.00 0.00 43 1015.5
20260903164703 69 218 2.0 16.0 0.00 0.00 0.00 44 1015.5
20260903164603 69 233 5.0 16.0 0.00 0.00 0.00 43 1015.4
20260903164503 69 239 4.0 16.0 0.00 0.00 0.00 43 1015.4
20260903164403 68 240 8.0 16.0 0.00 0.00 0.00 44 1015.7
20260903164303 68 245 9.0 16.0 0.00 0.00 0.00 43 1015.6
20260903164203 69 237 7.0 14.0 0.00 0.00 0.00 43 1015.4
20260903164103 69 224 7.0 14.0 0.00 0.00 0.00 43 1015.7
20260903164017 68 223 4.0 11.0 0.00 0.00 0.00 43 1015.6
20260903164003 68 225 4.0 11.0 0.00 0.00 0.00 43 1015.6
20260903163903 68 243 6.0 11.0 0.00 0.00 0.00 44 1015.6
20260903163703 68 256 4.0 11.0 0.00 0.00 0.00 44 1015.6
20260903163603 68 256 4.0 11.0 0.00 0.00 0.00 44 1015.5
20260903163320 67 238 7.0 11.0 0.00 0.00 0.00 45 1015.9
20260903163303 67 234 7.0 11.0 0.00 0.00 0.00 45 1015.9
20260903163210 67 229 4.0 9.0 0.00 0.00 0.00 45 1015.7
20260903163003 66 231 4.0 11.0 0.00 0.00 0.00 47 1016.0
20260903162918 66 230 5.0 11.0 0.00 0.00 0.00 47 1015.7
20260903162903 66 229 5.0 11.0 0.00 0.00 0.00 47 1015.7
20260903162803 66 239 3.0 11.0 0.00 0.00 0.00 48 1016.0
20260903162603 65 238 8.0 11.0 0.00 0.00 0.00 48 1015.9
20260903162503 65 227 7.0 11.0 0.00 0.00 0.00 48 1016.1
20260903162403 65 211 3.0 11.0 0.00 0.00 0.00 49 1016.1
20260903162306 65 203 5.0 11.0 0.00 0.00 0.00 49 1016.0
20260903162203 65 198 5.0 11.0 0.00 0.00 0.00 49 1016.0
20260903162103 65 197 4.0 11.0 0.00 0.00 0.00 49 1015.8
20260903162003 65 204 5.0 11.0 0.00 0.00 0.00 50 1016.0
20260903161903 65 210 4.0 11.0 0.00 0.00 0.00 51 1016.1
20260903161816 65 207 4.0 13.0 0.00 0.00 0.00 51 1016.3
20260903161803 65 202 4.0 13.0 0.00 0.00 0.00 51 1016.3
20260903161703 65 201 2.0 13.0 0.00 0.00 0.00 51 1016.1
20260903161503 65 212 6.0 14.0 0.00 0.00 0.00 51 1016.4
20260903161417 65 220 5.0 14.0 0.00 0.00 0.00 52 1016.1
20260903161403 65 219 5.0 14.0 0.00 0.00 0.00 52 1016.1
20260903161303 65 228 7.0 14.0 0.00 0.00 0.00 52 1016.2
20260903161103 65 236 7.0 14.0 0.00 0.00 0.00 51 1016.3
20260903161003 65 245 7.0 11.0 0.00 0.00 0.00 51 1016.2
20260903160903 65 257 6.0 11.0 0.00 0.00 0.00 51 1016.3
20260903160803 66 255 4.0 11.0 0.00 0.00 0.00 51 1016.2
20260903160703 66 253 4.0 11.0 0.00 0.00 0.00 50 1016.2
20260903160603 66 251 6.0 11.0 0.00 0.00 0.00 50 1016.1
20260903160503 66 252 5.0 11.0 0.00 0.00 0.00 50 1016.0
20260903160403 66 252 4.0 11.0 0.00 0.00 0.00 49 1016.2
20260903160317 66 248 4.0 11.0 0.00 0.00 0.00 49 1016.1
20260903160303 66 245 7.0 11.0 0.00 0.00 0.00 49 1016.0
20260903160218 66 237 4.0 11.0 0.00 0.00 0.00 49 1016.0
20260903160203 66 236 4.0 11.0 0.00 0.00 0.00 49 1016.0
20260903155918 66 221 6.0 9.0 0.00 0.00 0.00 49 1016.0
20260903155903 66 218 5.0 9.0 0.00 0.00 0.00 49 1016.1
20260903155803 66 230 4.0 9.0 0.00 0.00 0.00 49 1016.3
20260903155603 66 248 2.0 7.0 0.00 0.00 0.00 49 1016.1
20260903155503 66 258 2.0 9.0 0.00 0.00 0.00 49 1016.1
20260903155417 66 252 2.0 9.0 0.00 0.00 0.00 50 1016.1
20260903155403 66 250 2.0 9.0 0.00 0.00 0.00 50 1016.1
20260903155306 66 251 4.0 9.0 0.00 0.00 0.00 50 1016.1
20260903155218 66 247 4.0 9.0 0.00 0.00 0.00 49 1016.1
20260903155103 65 242 7.0 9.0 0.00 0.00 0.00 49 1016.1
20260903154903 66 243 5.0 11.0 0.00 0.00 0.00 50 1016.1
20260903154803 66 250 2.0 13.0 0.00 0.00 0.00 51 1016.2
20260903154703 66 246 3.0 13.0 0.00 0.00 0.00 51 1016.1
20260903154617 65 250 6.0 13.0 0.00 0.00 0.00 51 1016.2
20260903154603 65 252 6.0 13.0 0.00 0.00 0.00 51 1016.2
20260903154504 65 257 7.0 13.0 0.00 0.00 0.00 51 1016.2
20260903154203 65 242 5.0 11.0 0.00 0.00 0.00 50 1016.2
20260903154116 66 243 4.0 11.0 0.00 0.00 0.00 50 1016.0
20260903154103 66 240 4.0 11.0 0.00 0.00 0.00 50 1016.0
20260903154003 66 232 5.0 11.0 0.00 0.00 0.00 51 1016.2
20260903153818 66 227 5.0 9.0 0.00 0.00 0.00 51 1016.1
20260903153803 66 230 5.0 9.0 0.00 0.00 0.00 51 1016.1
20260903153703 66 235 3.0 8.0 0.00 0.00 0.00 51 1016.2
20260903153503 65 237 3.0 7.0 0.00 0.00 0.00 54 1015.7
20260903153416 65 246 2.0 7.0 0.00 0.00 0.00 58 1016.0
20260903153403 65 249 2.0 7.0 0.00 0.00 0.00 58 1016.0
20260903153306 65 254 3.0 6.0 0.00 0.00 0.00 61 1015.9
20260903153103 65 271 2.0 4.0 0.00 0.00 0.00 62 1015.7
20260903153003 65 274 1.0 4.0 0.00 0.00 0.00 62 1015.6
20260903152903 65 266 1.0 4.0 0.00 0.00 0.00 62 1015.7
20260903152803 65 268 2.0 4.0 0.00 0.00 0.00 62 1015.7
20260903152703 65 272 3.0 8.0 0.00 0.00 0.00 63 1015.7
20260903152603 65 269 2.0 8.0 0.00 0.00 0.00 62 1015.9
20260903152503 65 269 3.0 8.0 0.00 0.00 0.00 62 1015.9
20260903152403 65 267 3.0 8.0 0.00 0.00 0.00 62 1016.0
20260903152306 65 269 3.0 8.0 0.00 0.00 0.00 62 1015.8
20260903152203 64 266 4.0 8.0 0.00 0.00 0.00 62 1015.8
20260903152103 64 266 4.0 7.0 0.00 0.00 0.00 61 1016.0
20260903152003 65 269 3.0 7.0 0.00 0.00 0.00 61 1016.2
20260903151903 65 282 2.0 4.0 0.00 0.00 0.00 61 1015.9
20260903151803 65 284 2.0 4.0 0.00 0.00 0.00 61 1015.8
20260903151703 65 298 3.0 6.0 0.00 0.00 0.00 61 1016.1
20260903151603 65 312 2.0 6.0 0.00 0.00 0.00 62 1016.0
20260903151503 65 310 2.0 6.0 0.00 0.00 0.00 61 1016.0
20260903151403 65 304 2.0 6.0 0.00 0.00 0.00 61 1015.9
20260903151303 65 303 2.0 6.0 0.00 0.00 0.00 62 1015.9
20260903151103 64 280 2.0 7.0 0.00 0.00 0.00 62 1016.0
20260903151006 64 286 2.0 7.0 0.00 0.00 0.00 62 1016.0
20260903150903 64 298 2.0 7.0 0.00 0.00 0.00 62 1016.2
20260903150803 64 302 4.0 7.0 0.00 0.00 0.00 62 1016.1
20260903150717 64 302 2.0 7.0 0.00 0.00 0.00 63 1016.1
20260903150703 64 299 4.0 7.0 0.00 0.00 0.00 63 1016.0
20260903150603 64 296 3.0 7.0 0.00 0.00 0.00 64 1016.3
20260903150418 63 275 4.0 7.0 0.00 0.00 0.00 64 1015.9
20260903150403 63 272 4.0 7.0 0.00 0.00 0.00 64 1015.9
20260903150303 64 264 4.0 7.0 0.00 0.00 0.00 64 1016.1
20260903150103 64 276 4.0 7.0 0.00 0.00 0.00 64 1016.2
20260903150003 64 274 4.0 8.0 0.00 0.00 0.00 63 1016.3
20260903145903 64 280 2.0 8.0 0.00 0.00 0.00 64 1016.4
20260903145803 64 283 4.0 8.0 0.00 0.00 0.00 64 1016.5
20260903145703 64 288 3.0 8.0 0.00 0.00 0.00 64 1016.3
20260903145603 64 287 3.0 8.0 0.00 0.00 0.00 63 1016.2
20260903145503 64 299 3.0 7.0 0.00 0.00 0.00 63 1016.1
20260903145403 64 305 2.0 7.0 0.00 0.00 0.00 63 1016.3
20260903145306 64 298 2.0 7.0 0.00 0.00 0.00 63 1016.3
20260903145104 64 290 4.0 6.0 0.00 0.00 0.00 63 1016.2
20260903145003 64 287 2.0 6.0 0.00 0.00 0.00 63 1016.2
20260903144917 64 288 2.0 6.0 0.00 0.00 0.00 63 1016.2
20260903144903 64 289 2.0 6.0 0.00 0.00 0.00 63 1016.2
20260903144818 64 290 2.0 6.0 0.00 0.00 0.00 63 1015.9
20260903144803 64 292 2.0 6.0 0.00 0.00 0.00 63 1015.9
20260903144503 64 295 3.0 6.0 0.00 0.00 0.00 62 1016.0
20260903144403 64 292 2.0 4.0 0.00 0.00 0.00 62 1015.8
20260903144303 64 292 2.0 6.0 0.00 0.00 0.00 62 1015.9
20260903144103 63 303 2.0 6.0 0.00 0.00 0.00 64 1015.9
20260903144003 63 308 2.0 6.0 0.00 0.00 0.00 64 1016.0
20260903143903 63 313 4.0 6.0 0.00 0.00 0.00 64 1015.9
20260903143803 63 317 3.0 6.0 0.00 0.00 0.00 65 1016.0
20260903143703 63 317 2.0 6.0 0.00 0.00 0.00 65 1016.1
20260903143603 62 320 2.0 6.0 0.00 0.00 0.00 65 1015.8
20260903143503 63 315 4.0 6.0 0.00 0.00 0.00 64 1015.9
20260903143403 63 311 3.0 6.0 0.00 0.00 0.00 64 1015.9
20260903143303 63 311 4.0 6.0 0.00 0.00 0.00 64 1015.8
20260903143203 63 304 4.0 6.0 0.00 0.00 0.00 64 1015.8
20260903143103 63 300 2.0 4.0 0.00 0.00 0.00 64 1015.8
20260903143016 63 297 2.0 4.0 0.00 0.00 0.00 64 1015.9
20260903143004 63 300 2.0 4.0 0.00 0.00 0.00 64 1015.9
20260903142903 63 293 2.0 4.0 0.00 0.00 0.00 63 1016.0
20260903142718 63 304 2.0 4.0 0.00 0.00 0.00 63 1016.1
20260903142703 63 307 2.0 4.0 0.00 0.00 0.00 63 1016.1
20260903142603 63 306 2.0 6.0 0.00 0.00 0.00 63 1016.0
20260903142403 63 312 2.0 6.0 0.00 0.00 0.00 64 1016.0
20260903142317 63 312 3.0 6.0 0.00 0.00 0.00 64 1015.9
20260903142306 63 311 3.0 6.0 0.00 0.00 0.00 64 1016.1
20260903142203 63 311 2.0 6.0 0.00 0.00 0.00 64 1016.2
20260903142118 63 311 4.0 6.0 0.00 0.00 0.00 64 1016.2
20260903142003 63 317 2.0 6.0 0.00 0.00 0.00 64 1016.2
20260903141803 62 310 2.0 6.0 0.00 0.00 0.00 65 1016.2
20260903141703 63 311 2.0 6.0 0.00 0.00 0.00 65 1016.1
20260903141603 63 307 3.0 6.0 0.00 0.00 0.00 66 1016.2
20260903141503 63 294 3.0 6.0 0.00 0.00 0.00 65 1016.1
20260903141403 64 273 1.0 4.0 0.00 0.00 0.00 65 1016.1
20260903141303 63 266 2.0 4.0 0.00 0.00 0.00 66 1016.2
20260903141203 63 269 1.0 4.0 0.00 0.00 0.00 66 1016.0
20260903141118 63 267 2.0 4.0 0.00 0.00 0.00 66 1016.0
20260903141103 63 266 2.0 4.0 0.00 0.00 0.00 66 1015.9
20260903141003 63 265 2.0 4.0 0.00 0.00 0.00 66 1016.1
20260903140917 62 272 2.0 4.0 0.00 0.00 0.00 66 1016.2
20260903140803 62 273 2.0 4.0 0.00 0.00 0.00 66 1016.0
20260903140718 63 284 2.0 4.0 0.00 0.00 0.00 66 1015.9
20260903140617 62 303 2.0 4.0 0.00 0.00 0.00 67 1016.0
20260903140518 62 320 2.0 4.0 0.00 0.00 0.00 67 1015.9
20260903140203 62 314 2.0 4.0 0.00 0.00 0.00 68 1016.0
20260903140003 62 313 2.0 4.0 0.00 0.00 0.00 67 1015.9
20260903135903 62 318 3.0 4.0 0.00 0.00 0.00 66 1016.0
20260903135703 63 320 1.0 4.0 0.00 0.00 0.00 66 1016.0
20260903135603 63 307 2.0 4.0 0.00 0.00 0.00 66 1015.9
20260903135503 63 279 2.0 4.0 0.00 0.00 0.00 65 1016.0
20260903135403 63 231 1.0 2.0 0.00 0.00 0.00 65 1016.2
20260903135306 63 229 0.0 2.0 0.00 0.00 0.00 65 1016.3
20260903135217 62 235 1.0 4.0 0.00 0.00 0.00 65 1016.3
20260903135203 62 237 1.0 4.0 0.00 0.00 0.00 65 1016.3
20260903135103 62 237 1.0 4.0 0.00 0.00 0.00 66 1016.3
20260903134905 62 244 0.0 4.0 0.00 0.00 0.00 67 1016.2
20260903134803 61 244 2.0 4.0 0.00 0.00 0.00 66 1016.2
20260903134703 61 246 2.0 4.0 0.00 0.00 0.00 67 1016.2
20260903134603 61 245 2.0 4.0 0.00 0.00 0.00 67 1016.1
20260903134503 61 247 2.0 4.0 0.00 0.00 0.00 68 1015.9
20260903134418 61 249 3.0 4.0 0.00 0.00 0.00 67 1016.1
20260903134403 61 250 3.0 4.0 0.00 0.00 0.00 67 1016.1
20260903134103 61 244 2.0 4.0 0.00 0.00 0.00 67 1016.2
20260903134003 61 250 1.0 4.0 0.00 0.00 0.00 67 1015.9
20260903133903 61 247 2.0 4.0 0.00 0.00 0.00 67 1016.0
20260903133804 61 245 2.0 4.0 0.00 0.00 0.00 67 1016.1
20260903133703 61 245 1.0 4.0 0.00 0.00 0.00 68 1015.9
20260903133603 61 248 2.0 4.0 0.00 0.00 0.00 67 1016.1
20260903133503 61 244 3.0 4.0 0.00 0.00 0.00 68 1016.2
20260903133403 62 240 2.0 4.0 0.00 0.00 0.00 68 1016.2
20260903133303 62 249 1.0 4.0 0.00 0.00 0.00 68 1016.1
20260903133203 61 258 2.0 4.0 0.00 0.00 0.00 67 1016.0
20260903133103 61 265 1.0 4.0 0.00 0.00 0.00 68 1016.2
20260903133018 61 261 2.0 4.0 0.00 0.00 0.00 68 1016.3
20260903133003 61 263 2.0 4.0 0.00 0.00 0.00 68 1016.3
20260903132903 61 264 3.0 4.0 0.00 0.00 0.00 67 1016.0
20260903132703 61 257 3.0 4.0 0.00 0.00 0.00 68 1016.2
20260903132603 61 249 2.0 4.0 0.00 0.00 0.00 69 1016.2
20260903132503 61 247 3.0 4.0 0.00 0.00 0.00 69 1016.2
20260903132403 61 247 2.0 4.0 0.00 0.00 0.00 69 1016.3
20260903132306 61 244 1.0 4.0 0.00 0.00 0.00 69 1016.2
20260903132203 60 247 2.0 4.0 0.00 0.00 0.00 70 1016.1
20260903132103 60 250 3.0 4.0 0.00 0.00 0.00 69 1016.1
20260903132018 60 253 2.0 4.0 0.00 0.00 0.00 69 1016.3
20260903132003 60 254 2.0 4.0 0.00 0.00 0.00 69 1016.3
20260903131903 61 254 2.0 4.0 0.00 0.00 0.00 69 1016.1
20260903131703 61 252 2.0 4.0 0.00 0.00 0.00 69 1016.2
20260903131617 61 249 2.0 4.0 0.00 0.00 0.00 69 1016.1
20260903131603 61 248 2.0 4.0 0.00 0.00 0.00 69 1016.1
20260903131517 61 243 1.0 4.0 0.00 0.00 0.00 70 1016.2
20260903131503 60 241 2.0 4.0 0.00 0.00 0.00 70 1016.2
20260903131203 60 233 2.0 4.0 0.00 0.00 0.00 70 1016.1
20260903131117 60 240 2.0 4.0 0.00 0.00 0.00 70 1016.1
20260903131104 60 242 2.0 4.0 0.00 0.00 0.00 70 1016.1
20260903131018 60 250 2.0 4.0 0.00 0.00 0.00 70 1016.3
20260903131003 60 253 2.0 4.0 0.00 0.00 0.00 70 1016.3
20260903130817 60 259 2.0 4.0 0.00 0.00 0.00 70 1016.4
20260903130703 60 256 2.0 4.0 0.00 0.00 0.00 70 1016.2
20260903130503 60 244 2.0 4.0 0.00 0.00 0.00 70 1016.2
20260903130403 60 243 3.0 4.0 0.00 0.00 0.00 70 1016.2
20260903130320 60 246 2.0 4.0 0.00 0.00 0.00 70 1016.2
20260903130303 60 247 0.0 4.0 0.00 0.00 0.00 71 1016.1
20260903130217 60 246 0.0 4.0 0.00 0.00 0.00 71 1016.3
20260903130203 60 244 0.0 4.0 0.00 0.00 0.00 71 1016.3
20260903125903 60 241 3.0 4.0 0.00 0.00 0.00 70 1016.1
20260903125803 60 230 2.0 4.0 0.00 0.00 0.00 70 1016.4
20260903125703 60 226 2.0 4.0 0.00 0.00 0.00 69 1016.2
20260903125603 60 224 2.0 4.0 0.00 0.00 0.00 70 1016.0
20260903125503 60 215 1.0 4.0 0.00 0.00 0.00 70 1016.1
20260903125403 60 213 2.0 4.0 0.00 0.00 0.00 70 1016.3
20260903125203 60 220 3.0 4.0 0.00 0.00 0.00 70 1016.2
20260903125117 60 216 2.0 4.0 0.00 0.00 0.00 70 1016.3
20260903125103 60 214 2.0 4.0 0.00 0.00 0.00 70 1016.5
20260903125018 60 209 1.0 4.0 0.00 0.00 0.00 70 1016.6
20260903125003 60 207 1.0 4.0 0.00 0.00 0.00 70 1016.6
20260903124817 60 203 2.0 6.0 0.00 0.00 0.00 70 1016.6
20260903124703 60 205 2.0 6.0 0.00 0.00 0.00 70 1016.7
20260903124503 60 226 2.0 6.0 0.00 0.00 0.00 70 1016.6
20260903124403 60 228 2.0 6.0 0.00 0.00 0.00 69 1016.4
20260903124303 60 241 2.0 4.0 0.00 0.00 0.00 70 1016.3
20260903124203 60 237 2.0 4.0 0.00 0.00 0.00 70 1016.6
20260903124103 59 235 3.0 4.0 0.00 0.00 0.00 70 1016.3
20260903124003 60 233 3.0 4.0 0.00 0.00 0.00 70 1016.2
20260903123903 59 233 2.0 4.0 0.00 0.00 0.00 71 1016.3
20260903123804 59 228 2.0 4.0 0.00 0.00 0.00 71 1016.3
20260903123703 60 231 2.0 4.0 0.00 0.00 0.00 71 1016.2
20260903123603 60 226 2.0 4.0 0.00 0.00 0.00 71 1015.9
20260903123508 60 221 2.0 4.0 0.00 0.00 0.00 70 1016.1
20260903123403 60 218 2.0 4.0 0.00 0.00 0.00 70 1015.9
20260903123303 60 213 2.0 4.0 0.00 0.00 0.00 70 1016.0
20260903123217 60 208 2.0 6.0 0.00 0.00 0.00 70 1016.0
20260903123203 60 206 2.0 6.0 0.00 0.00 0.00 70 1016.0
20260903123103 60 206 2.0 6.0 0.00 0.00 0.00 70 1016.1
20260903122903 60 215 2.0 6.0 0.00 0.00 0.00 70 1016.0
20260903122803 59 218 2.0 6.0 0.00 0.00 0.00 70 1016.0
20260903122717 59 225 3.0 6.0 0.00 0.00 0.00 71 1016.0
20260903122703 59 228 3.0 6.0 0.00 0.00 0.00 71 1016.0
20260903122603 59 236 2.0 6.0 0.00 0.00 0.00 71 1015.9
20260903122318 59 233 4.0 6.0 0.00 0.00 0.00 70 1016.0
20260903122305 60 233 2.0 4.0 0.00 0.00 0.00 71 1016.0
20260903122203 60 223 2.0 4.0 0.00 0.00 0.00 71 1016.2
20260903122003 59 200 2.0 4.0 0.00 0.00 0.00 71 1016.2
20260903121903 59 200 2.0 4.0 0.00 0.00 0.00 71 1016.0
20260903121803 59 194 2.0 4.0 0.00 0.00 0.00 70 1015.9
20260903121717 59 199 2.0 4.0 0.00 0.00 0.00 70 1015.9
20260903121703 59 203 2.0 4.0 0.00 0.00 0.00 70 1015.9
20260903121603 59 208 3.0 4.0 0.00 0.00 0.00 70 1015.9
20260903121403 59 199 1.0 6.0 0.00 0.00 0.00 71 1015.9
20260903121303 59 212 1.0 6.0 0.00 0.00 0.00 71 1016.0
20260903121203 59 214 2.0 6.0 0.00 0.00 0.00 71 1015.9
20260903121103 59 226 2.0 6.0 0.00 0.00 0.00 71 1015.7
20260903120903 59 241 4.0 6.0 0.00 0.00 0.00 71 1016.0
20260903120803 59 235 2.0 6.0 0.00 0.00 0.00 71 1015.8
20260903120703 59 228 3.0 6.0 0.00 0.00 0.00 71 1015.7
20260903120618 59 227 3.0 4.0 0.00 0.00 0.00 71 1015.8
20260903120603 59 228 3.0 4.0 0.00 0.00 0.00 71 1015.8
20260903120503 59 227 2.0 4.0 0.00 0.00 0.00 71 1015.9
20260903120417 59 225 3.0 4.0 0.00 0.00 0.00 70 1015.8
20260903120303 59 231 2.0 4.0 0.00 0.00 0.00 70 1015.8
20260903120003 59 235 1.0 4.0 0.00 0.00 0.00 70 1015.7
20260903115903 59 234 2.0 4.0 0.00 0.00 0.00 70 1015.7
20260903115803 59 230 1.0 4.0 0.00 0.00 0.00 70 1015.9
20260903115703 59 218 2.0 4.0 0.00 0.00 0.00 70 1015.9
20260903115603 59 204 2.0 4.0 0.00 0.00 0.00 70 1015.8
20260903115503 59 179 1.0 2.0 0.00 0.00 0.00 70 1015.7
20260903115403 59 186 1.0 2.0 0.00 0.00 0.00 70 1015.7
20260903115305 59 190 0.0 2.0 0.00 0.00 0.00 70 1015.8
20260903115203 59 193 1.0 2.0 0.00 0.00 0.00 70 1015.6
20260903115103 59 204 2.0 2.0 0.00 0.00 0.00 70 1015.5
20260903114903 59 194 1.0 4.0 0.00 0.00 0.00 70 1015.6
20260903114803 59 203 0.0 4.0 0.00 0.00 0.00 70 1015.9
20260903114703 59 204 1.0 4.0 0.00 0.00 0.00 70 1015.9
20260903114603 59 210 1.0 4.0 0.00 0.00 0.00 70 1015.6
20260903114503 59 219 1.0 4.0 0.00 0.00 0.00 70 1015.7
20260903114403 59 223 1.0 4.0 0.00 0.00 0.00 70 1015.6
20260903114318 59 227 2.0 4.0 0.00 0.00 0.00 70 1015.8
20260903114303 59 224 2.0 4.0 0.00 0.00 0.00 70 1015.9
20260903114218 59 226 1.0 4.0 0.00 0.00 0.00 70 1015.7
20260903114203 59 225 1.0 4.0 0.00 0.00 0.00 70 1015.7
20260903113903 59 209 3.0 4.0 0.00 0.00 0.00 70 1015.7
20260903113804 59 195 1.0 4.0 0.00 0.00 0.00 70 1015.8
20260903113717 59 199 1.0 4.0 0.00 0.00 0.00 70 1015.7
20260903113703 59 200 1.0 4.0 0.00 0.00 0.00 70 1015.7
20260903113603 59 211 1.0 4.0 0.00 0.00 0.00 70 1015.8
20260903113417 59 186 2.0 4.0 0.00 0.00 0.00 70 1015.7
20260903113403 59 188 2.0 4.0 0.00 0.00 0.00 70 1015.7
20260903113318 59 193 2.0 4.0 0.00 0.00 0.00 70 1015.7
20260903113303 59 191 2.0 4.0 0.00 0.00 0.00 70 1015.7
20260903113218 59 189 2.0 4.0 0.00 0.00 0.00 70 1015.7
20260903113117 59 186 2.0 4.0 0.00 0.00 0.00 70 1015.6
20260903113018 59 201 2.0 4.0 0.00 0.00 0.00 70 1015.9
20260903112703 59 223 2.0 4.0 0.00 0.00 0.00 70 1015.6
20260903112604 59 208 1.0 4.0 0.00 0.00 0.00 70 1015.5
20260903112503 59 200 1.0 4.0 0.00 0.00 0.00 70 1015.7
20260903112403 59 208 0.0 4.0 0.00 0.00 0.00 70 1015.2
20260903112306 59 216 2.0 4.0 0.00 0.00 0.00 70 1015.4
20260903112205 59 191 2.0 4.0 0.00 0.00 0.00 70 1015.5
20260903112103 59 198 2.0 4.0 0.00 0.00 0.00 70 1015.6
20260903112003 59 207 2.0 4.0 0.00 0.00 0.00 70 1015.7
20260903111918 59 210 1.0 4.0 0.00 0.00 0.00 70 1015.5
20260903111903 59 204 1.0 4.0 0.00 0.00 0.00 70 1015.5
20260903111803 59 191 2.0 4.0 0.00 0.00 0.00 70 1015.6
20260903111603 59 212 2.0 4.0 0.00 0.00 0.00 70 1015.4
20260903111503 59 201 2.0 4.0 0.00 0.00 0.00 70 1015.5
20260903111403 59 185 3.0 4.0 0.00 0.00 0.00 70 1015.4
20260903111303 59 187 3.0 4.0 0.00 0.00 0.00 70 1015.5
20260903111218 59 176 2.0 4.0 0.00 0.00 0.00 70 1015.2
20260903111207 59 170 2.0 4.0 0.00 0.00 0.00 70 1015.2
20260903111103 59 189 2.0 4.0 0.00 0.00 0.00 70 1015.0
20260903110918 59 216 2.0 4.0 0.00 0.00 0.00 70 1014.9
20260903110903 59 214 2.0 4.0 0.00 0.00 0.00 70 1014.9
20260903110803 59 223 1.0 4.0 0.00 0.00 0.00 70 1014.9
20260903110603 59 206 2.0 6.0 0.00 0.00 0.00 70 1015.0
20260903110503 59 198 2.0 7.0 0.00 0.00 0.00 70 1015.0
20260903110403 59 200 2.0 7.0 0.00 0.00 0.00 70 1015.1
20260903110303 59 203 2.0 7.0 0.00 0.00 0.00 70 1015.1
20260903110203 59 199 2.0 7.0 0.00 0.00 0.00 70 1015.1
20260903110103 59 193 3.0 7.0 0.00 0.00 0.00 70 1015.2
20260903110003 59 207 4.0 7.0 0.00 0.00 0.00 70 1015.1
20260903105905 59 228 2.0 8.0 0.00 0.00 0.00 70 1015.3
20260903105703 59 229 3.0 8.0 0.00 0.00 0.00 70 1015.2
20260903105622 59 232 3.0 8.0 0.00 0.00 0.00 70 1015.5
20260903105603 59 233 3.0 8.0 0.00 0.00 0.00 70 1015.5
20260903105503 59 217 4.0 8.0 0.00 0.00 0.00 69 1015.2
20260903105306 59 193 4.0 8.0 0.00 0.00 0.00 69 1015.3
20260903105203 59 197 4.0 7.0 0.00 0.00 0.00 69 1015.3
20260903105103 59 193 4.0 7.0 0.00 0.00 0.00 69 1015.1
20260903105003 59 204 4.0 7.0 0.00 0.00 0.00 69 1015.1
20260903104903 59 215 2.0 7.0 0.00 0.00 0.00 69 1015.4
20260903104803 59 203 2.0 7.0 0.00 0.00 0.00 69 1015.4
20260903104603 59 234 3.0 8.0 0.00 0.00 0.00 69 1015.2
20260903104503 59 238 2.0 8.0 0.00 0.00 0.00 69 1015.2
20260903104403 59 239 3.0 8.0 0.00 0.00 0.00 69 1015.2
20260903104303 59 248 3.0 8.0 0.00 0.00 0.00 69 1015.0
20260903104218 59 232 2.0 8.0 0.00 0.00 0.00 69 1015.0
20260903104203 59 226 2.0 8.0 0.00 0.00 0.00 69 1015.0
20260903104103 59 225 3.0 8.0 0.00 0.00 0.00 69 1014.8
20260903103903 59 231 1.0 11.0 0.00 0.00 0.00 69 1015.2
20260903103803 59 219 3.0 11.0 0.00 0.00 0.00 69 1014.9
20260903103717 59 221 2.0 11.0 0.00 0.00 0.00 69 1015.1
20260903103703 59 225 2.0 11.0 0.00 0.00 0.00 69 1015.1
20260903103603 59 216 3.0 11.0 0.00 0.00 0.00 69 1015.0
20260903103403 59 194 4.0 8.0 0.00 0.00 0.00 69 1015.0
20260903103303 59 191 2.0 7.0 0.00 0.00 0.00 69 1014.9
20260903103218 59 189 2.0 7.0 0.00 0.00 0.00 69 1015.0
20260903103203 59 188 2.0 7.0 0.00 0.00 0.00 69 1015.0
20260903103103 59 195 3.0 7.0 0.00 0.00 0.00 69 1014.7
20260903103017 59 206 2.0 6.0 0.00 0.00 0.00 70 1014.6
20260903102918 59 207 2.0 6.0 0.00 0.00 0.00 70 1014.8
20260903102903 59 210 2.0 6.0 0.00 0.00 0.00 70 1014.8
20260903102818 59 211 3.0 8.0 0.00 0.00 0.00 70 1014.8
20260903102503 59 192 2.0 8.0 0.00 0.00 0.00 70 1014.9
20260903102403 59 182 2.0 8.0 0.00 0.00 0.00 70 1015.0
20260903102305 59 192 3.0 6.0 0.00 0.00 0.00 70 1014.8
20260903102203 59 200 3.0 6.0 0.00 0.00 0.00 69 1014.7
20260903102103 59 258 2.0 6.0 0.00 0.00 0.00 69 1014.7
20260903102003 59 233 4.0 6.0 0.00 0.00 0.00 69 1014.8
20260903101903 59 245 1.0 7.0 0.00 0.00 0.00 69 1015.0
20260903101803 59 247 2.0 7.0 0.00 0.00 0.00 69 1014.8
20260903101717 59 235 0.0 8.0 0.00 0.00 0.00 69 1015.0
20260903101703 59 225 0.0 8.0 0.00 0.00 0.00 69 1015.0
20260903101603 59 225 2.0 8.0 0.00 0.00 0.00 69 1015.1
20260903101403 59 220 3.0 8.0 0.00 0.00 0.00 69 1014.9
20260903101304 59 221 2.0 8.0 0.00 0.00 0.00 69 1015.0
20260903101203 59 232 4.0 8.0 0.00 0.00 0.00 69 1014.8
20260903101003 59 228 4.0 8.0 0.00 0.00 0.00 69 1015.0
20260903100903 59 212 3.0 8.0 0.00 0.00 0.00 69 1015.0
20260903100803 59 201 5.0 8.0 0.00 0.00 0.00 69 1015.1
20260903100717 59 196 4.0 8.0 0.00 0.00 0.00 69 1014.8
20260903100703 59 197 4.0 9.0 0.00 0.00 0.00 69 1014.9
20260903100603 59 202 3.0 9.0 0.00 0.00 0.00 69 1014.9
20260903100403 59 217 4.0 9.0 0.00 0.00 0.00 68 1015.0
20260903100303 59 216 3.0 9.0 0.00 0.00 0.00 69 1014.8
20260903100203 59 203 4.0 9.0 0.00 0.00 0.00 69 1014.9
20260903100103 59 186 4.0 9.0 0.00 0.00 0.00 69 1014.7
20260903100003 59 191 2.0 9.0 0.00 0.00 0.00 69 1014.8
20260903095903 59 188 5.0 9.0 0.00 0.00 0.00 69 1014.8
20260903095818 59 201 3.0 9.0 0.00 0.00 0.00 69 1014.6
20260903095803 59 206 3.0 9.0 0.00 0.00 0.00 69 1014.6
20260903095703 59 217 5.0 9.0 0.00 0.00 0.00 69 1014.5
20260903095617 59 243 4.0 11.0 0.00 0.00 0.00 69 1014.7
20260903095503 59 258 4.0 11.0 0.00 0.00 0.00 68 1014.5
20260903095306 59 216 4.0 11.0 0.00 0.00 0.00 68 1014.2
20260903095218 59 219 2.0 11.0 0.00 0.00 0.00 68 1014.3
20260903095204 59 222 2.0 11.0 0.00 0.00 0.00 68 1014.3
20260903095103 59 214 4.0 11.0 0.00 0.00 0.00 68 1014.4
20260903094903 59 221 4.0 13.0 0.00 0.00 0.00 68 1014.3
20260903094803 59 220 4.0 13.0 0.00 0.00 0.00 68 1014.1
20260903094717 59 205 5.0 13.0 0.00 0.00 0.00 68 1014.1
20260903094703 59 205 3.0 13.0 0.00 0.00 0.00 68 1014.4
20260903094603 59 197 4.0 13.0 0.00 0.00 0.00 68 1014.0
20260903094403 59 202 5.0 13.0 0.00 0.00 0.00 68 1014.1
20260903094303 59 215 4.0 13.0 0.00 0.00 0.00 68 1013.9
20260903094203 59 213 5.0 13.0 0.00 0.00 0.00 68 1014.1
20260903094118 59 201 6.0 13.0 0.00 0.00 0.00 68 1013.9
20260903094103 59 199 6.0 13.0 0.00 0.00 0.00 68 1013.9
20260903094017 59 191 5.0 13.0 0.00 0.00 0.00 68 1014.0
20260903094003 59 185 5.0 13.0 0.00 0.00 0.00 68 1014.0
20260903093703 60 130 4.0 13.0 0.00 0.00 0.00 68 1013.7
20260903093603 60 129 4.0 13.0 0.00 0.00 0.00 68 1013.8
20260903093503 60 152 3.0 11.0 0.00 0.00 0.00 68 1013.6
20260903093403 60 199 4.0 11.0 0.00 0.00 0.00 68 1013.7
20260903093303 60 221 2.0 11.0 0.00 0.00 0.00 68 1013.5
20260903093203 60 209 6.0 13.0 0.00 0.00 0.00 68 1013.7
20260903093103 60 212 4.0 13.0 0.00 0.00 0.00 68 1013.6
20260903093003 60 194 4.0 13.0 0.00 0.00 0.00 68 1013.6
20260903092903 60 171 4.0 13.0 0.00 0.00 0.00 68 1013.6
20260903092803 60 171 2.0 13.0 0.00 0.00 0.00 67 1013.7
20260903092703 60 175 2.0 9.0 0.00 0.00 0.00 67 1013.7
20260903092603 60 181 4.0 9.0 0.00 0.00 0.00 67 1013.6
20260903092518 60 184 4.0 9.0 0.00 0.00 0.00 67 1013.9
20260903092503 60 187 4.0 9.0 0.00 0.00 0.00 67 1013.9
20260903092317 60 211 4.0 9.0 0.00 0.00 0.00 67 1013.6
20260903092203 60 203 2.0 14.0 0.00 0.00 0.00 67 1013.8
20260903092003 60 253 4.0 14.0 0.00 0.00 0.00 67 1013.6
20260903091903 60 281 4.0 14.0 0.00 0.00 0.00 67 1013.8
20260903091818 60 319 8.0 14.0 0.00 0.00 0.00 67 1013.5
20260903091803 60 310 8.0 14.0 0.00 0.00 0.00 67 1013.5
20260903091703 60 302 4.0 11.0 0.00 0.00 0.00 67 1013.6
20260903091503 60 324 4.0 11.0 0.00 0.00 0.00 67 1013.6
20260903091403 60 327 4.0 11.0 0.00 0.00 0.00 67 1013.6
20260903091303 60 227 4.0 9.0 0.00 0.00 0.00 67 1013.4
20260903091203 60 184 2.0 7.0 0.00 0.00 0.00 67 1013.5
20260903091103 60 166 3.0 7.0 0.00 0.00 0.00 67 1013.4
20260903091003 60 191 2.0 11.0 0.00 0.00 0.00 67 1013.4
20260903090903 60 173 4.0 11.0 0.00 0.00 0.00 66 1013.4
20260903090803 60 197 4.0 11.0 0.00 0.00 0.00 66 1013.7
20260903090717 60 211 2.0 11.0 0.00 0.00 0.00 66 1013.5
20260903090703 60 216 2.0 11.0 0.00 0.00 0.00 66 1013.6
20260903090603 60 216 4.0 11.0 0.00 0.00 0.00 66 1013.5
20260903090403 60 212 4.0 14.0 0.00 0.00 0.00 66 1013.3
20260903090303 60 189 2.0 14.0 0.00 0.00 0.00 66 1013.4
20260903090217 60 182 4.0 14.0 0.00 0.00 0.00 66 1013.3
20260903090203 60 181 4.0 14.0 0.00 0.00 0.00 66 1013.3
20260903090103 60 168 5.0 14.0 0.00 0.00 0.00 66 1013.5
20260903085903 60 156 5.0 11.0 0.00 0.00 0.00 66 1013.6
20260903085803 60 192 7.0 11.0 0.00 0.00 0.00 66 1013.3
20260903085703 60 182 6.0 11.0 0.00 0.00 0.00 66 1013.3
20260903085617 60 195 4.0 9.0 0.00 0.00 0.00 66 1013.6
20260903085603 60 206 4.0 9.0 0.00 0.00 0.00 66 1013.6
20260903085517 60 212 4.0 9.0 0.00 0.00 0.00 66 1013.4
20260903085503 60 202 4.0 9.0 0.00 0.00 0.00 66 1013.5
20260903085203 60 208 3.0 8.0 0.00 0.00 0.00 66 1013.4
20260903085103 60 217 4.0 14.0 0.00 0.00 0.00 66 1013.3
20260903085003 60 226 3.0 14.0 0.00 0.00 0.00 66 1013.2
20260903084903 60 228 3.0 14.0 0.00 0.00 0.00 66 1013.3
20260903084803 60 227 4.0 14.0 0.00 0.00 0.00 66 1013.2
20260903084703 60 232 6.0 14.0 0.00 0.00 0.00 66 1013.2
20260903084617 60 227 7.0 14.0 0.00 0.00 0.00 66 1013.3
20260903084603 60 218 7.0 14.0 0.00 0.00 0.00 66 1013.3
20260903084517 61 210 4.0 9.0 0.00 0.00 0.00 66 1013.3
20260903084503 61 214 4.0 9.0 0.00 0.00 0.00 66 1013.3
20260903084203 61 227 2.0 9.0 0.00 0.00 0.00 66 1013.3
20260903084103 61 217 5.0 9.0 0.00 0.00 0.00 66 1013.2
20260903084004 61 135 4.0 9.0 0.00 0.00 0.00 66 1013.2
20260903083921 61 152 2.0 9.0 0.00 0.00 0.00 66 1013.0
20260903083903 61 152 2.0 9.0 0.00 0.00 0.00 66 1012.9
20260903083818 61 144 3.0 9.0 0.00 0.00 0.00 66 1013.1
20260903083803 61 151 3.0 9.0 0.00 0.00 0.00 66 1013.1
20260903083503 61 197 4.0 8.0 0.00 0.00 0.00 65 1013.1
20260903083403 61 187 2.0 8.0 0.00 0.00 0.00 65 1012.9
20260903083303 61 175 3.0 8.0 0.00 0.00 0.00 65 1013.1
20260903083203 61 170 2.0 8.0 0.00 0.00 0.00 65 1013.0
20260903083103 61 159 4.0 9.0 0.00 0.00 0.00 65 1013.3
20260903083003 61 164 2.0 9.0 0.00 0.00 0.00 65 1012.9
20260903082903 61 176 2.0 9.0 0.00 0.00 0.00 65 1013.0
20260903082803 61 196 4.0 9.0 0.00 0.00 0.00 65 1012.8
20260903082718 61 234 4.0 9.0 0.00 0.00 0.00 65 1013.1
20260903082703 61 232 5.0 11.0 0.00 0.00 0.00 65 1013.0
20260903082603 61 240 5.0 11.0 0.00 0.00 0.00 65 1012.9
20260903082403 61 209 4.0 11.0 0.00 0.00 0.00 65 1012.8
20260903082316 61 193 3.0 11.0 0.00 0.00 0.00 65 1012.8
20260903082306 61 187 5.0 11.0 0.00 0.00 0.00 65 1012.9
20260903082203 61 173 4.0 11.0 0.00 0.00 0.00 65 1012.9
20260903082120 61 184 3.0 11.0 0.00 0.00 0.00 65 1013.1
20260903082003 61 191 4.0 11.0 0.00 0.00 0.00 64 1013.1
20260903081803 61 214 6.0 11.0 0.00 0.00 0.00 64 1012.7
20260903081703 61 213 4.0 11.0 0.00 0.00 0.00 64 1012.8
20260903081603 61 224 2.0 11.0 0.00 0.00 0.00 64 1012.8
20260903081517 61 210 5.0 11.0 0.00 0.00 0.00 64 1012.7
20260903081503 61 201 6.0 11.0 0.00 0.00 0.00 64 1012.6
20260903081403 62 175 3.0 11.0 0.00 0.00 0.00 64 1012.7
20260903081316 62 183 4.0 11.0 0.00 0.00 0.00 64 1012.7
20260903081203 62 189 4.0 11.0 0.00 0.00 0.00 64 1012.8
20260903081003 62 176 6.0 13.0 0.00 0.00 0.00 64 1012.6
20260903080903 62 175 5.0 13.0 0.00 0.00 0.00 64 1012.6
20260903080803 62 173 5.0 13.0 0.00 0.00 0.00 63 1012.6
20260903080718 62 176 6.0 13.0 0.00 0.00 0.00 63 1012.6
20260903080703 62 174 5.0 13.0 0.00 0.00 0.00 63 1012.3
20260903080603 62 200 5.0 11.0 0.00 0.00 0.00 63 1012.3
20260903080517 62 206 2.0 8.0 0.00 0.00 0.00 63 1012.5
20260903080403 62 196 2.0 9.0 0.00 0.00 0.00 63 1012.3
20260903080203 62 204 3.0 13.0 0.00 0.00 0.00 63 1012.4
20260903080103 62 191 2.0 13.0 0.00 0.00 0.00 63 1012.0
20260903080003 62 173 4.0 13.0 0.00 0.00 0.00 63 1012.0
20260903075903 62 193 5.0 13.0 0.00 0.00 0.00 63 1011.9
20260903075803 62 169 4.0 11.0 0.00 0.00 0.00 63 1012.3
20260903075703 62 140 5.0 14.0 0.00 0.00 0.00 63 1012.0
20260903075603 62 127 3.0 14.0 0.00 0.00 0.00 63 1012.3
20260903075503 62 128 4.0 14.0 0.00 0.00 0.00 62 1012.0
20260903075403 62 132 4.0 14.0 0.00 0.00 0.00 62 1012.1
20260903075318 62 124 4.0 14.0 0.00 0.00 0.00 62 1012.1
20260903075306 62 117 4.0 14.0 0.00 0.00 0.00 62 1012.1
20260903075203 62 171 6.0 14.0 0.00 0.00 0.00 62 1012.0
20260903075118 62 216 4.0 14.0 0.00 0.00 0.00 62 1012.0
20260903075003 62 195 2.0 11.0 0.00 0.00 0.00 62 1012.0
20260903074817 62 198 4.0 9.0 0.00 0.00 0.00 62 1011.9
20260903074809 62 205 4.0 9.0 0.00 0.00 0.00 62 1011.9
20260903074703 62 199 4.0 11.0 0.00 0.00 0.00 62 1011.6
20260903074517 62 151 3.0 17.0 0.00 0.00 0.00 62 1011.7
20260903074503 62 150 3.0 17.0 0.00 0.00 0.00 62 1011.7
20260903074403 62 153 2.0 17.0 0.00 0.00 0.00 62 1011.6
20260903074217 62 156 5.0 17.0 0.00 0.00 0.00 62 1011.6
20260903074203 62 154 5.0 17.0 0.00 0.00 0.00 62 1011.6
20260903074117 62 156 6.0 17.0 0.00 0.00 0.00 62 1011.7
20260903074103 62 164 6.0 17.0 0.00 0.00 0.00 62 1011.7
20260903073919 62 184 4.0 9.0 0.00 0.00 0.00 62 1011.5
20260903073803 62 185 2.0 11.0 0.00 0.00 0.00 62 1011.6
20260903073604 62 129 4.0 11.0 0.00 0.00 0.00 61 1011.4
20260903073517 62 150 4.0 11.0 0.00 0.00 0.00 62 1011.6
20260903073503 62 139 5.0 11.0 0.00 0.00 0.00 61 1011.4
20260903073403 63 154 4.0 11.0 0.00 0.00 0.00 61 1011.5
20260903073318 63 113 4.0 11.0 0.00 0.00 0.00 61 1011.5
20260903073203 63 26 4.0 11.0 0.00 0.00 0.00 61 1011.3
20260903073003 63 72 3.0 14.0 0.00 0.00 0.00 61 1011.5
20260903072903 63 73 3.0 15.0 0.00 0.00 0.00 61 1011.7
20260903072803 63 85 5.0 15.0 0.00 0.00 0.00 61 1011.3
20260903072703 63 105 4.0 15.0 0.00 0.00 0.00 61 1011.3
20260903072603 63 114 4.0 15.0 0.00 0.00 0.00 61 1011.4
20260903072503 63 151 6.0 15.0 0.00 0.00 0.00 60 1011.4
20260903072403 63 163 7.0 15.0 0.00 0.00 0.00 60 1011.3
20260903072306 63 144 4.0 13.0 0.00 0.00 0.00 61 1011.2
20260903072217 63 176 7.0 13.0 0.00 0.00 0.00 61 1011.4
20260903072203 63 175 7.0 13.0 0.00 0.00 0.00 61 1011.4
20260903072117 63 166 4.0 13.0 0.00 0.00 0.00 61 1011.4
20260903072103 63 168 4.0 13.0 0.00 0.00 0.00 61 1011.4
20260903071917 63 137 4.0 13.0 0.00 0.00 0.00 61 1011.5
20260903071803 63 131 4.0 13.0 0.00 0.00 0.00 61 1011.6
20260903071603 63 116 4.0 13.0 0.00 0.00 0.00 61 1011.5
20260903071503 63 167 4.0 11.0 0.00 0.00 0.00 61 1011.4
20260903071403 63 201 2.0 11.0 0.00 0.00 0.00 61 1011.5
20260903071303 63 224 5.0 11.0 0.00 0.00 0.00 61 1011.4
20260903071203 63 248 4.0 11.0 0.00 0.00 0.00 61 1011.6
20260903071103 63 254 4.0 11.0 0.00 0.00 0.00 61 1011.3
20260903071003 63 212 5.0 11.0 0.00 0.00 0.00 61 1011.5
20260903070903 63 141 2.0 11.0 0.00 0.00 0.00 61 1011.7
20260903070803 63 137 4.0 11.0 0.00 0.00 0.00 61 1011.4
20260903070718 63 144 2.0 11.0 0.00 0.00 0.00 61 1011.6
20260903070703 63 142 3.0 11.0 0.00 0.00 0.00 61 1011.6
20260903070603 63 123 5.0 11.0 0.00 0.00 0.00 61 1011.4
20260903070403 63 126 3.0 14.0 0.00 0.00 0.00 61 1011.6
20260903070303 63 146 2.0 14.0 0.00 0.00 0.00 61 1011.2
20260903070203 63 119 2.0 14.0 0.00 0.00 0.00 61 1011.4
20260903070117 63 143 2.0 14.0 0.00 0.00 0.00 61 1011.4
20260903070103 63 170 2.0 14.0 0.00 0.00 0.00 61 1011.4
20260903070008 63 95 4.0 14.0 0.00 0.00 0.00 60 1011.4
20260903065803 63 88 4.0 13.0 0.00 0.00 0.00 61 1011.4
20260903065703 63 99 4.0 13.0 0.00 0.00 0.00 61 1011.5
20260903065603 63 81 4.0 13.0 0.00 0.00 0.00 61 1011.4
20260903065503 63 94 6.0 13.0 0.00 0.00 0.00 61 1011.6
20260903065403 63 101 5.0 13.0 0.00 0.00 0.00 60 1011.5
20260903065306 63 140 6.0 13.0 0.00 0.00 0.00 61 1011.6
20260903065203 63 163 2.0 11.0 0.00 0.00 0.00 61 1011.5
20260903065103 63 207 5.0 11.0 0.00 0.00 0.00 61 1011.5
20260903065018 63 230 2.0 11.0 0.00 0.00 0.00 61 1011.7
20260903065003 63 238 2.0 11.0 0.00 0.00 0.00 61 1011.7
20260903064903 63 247 5.0 11.0 0.00 0.00 0.00 61 1011.7
20260903064703 63 213 5.0 11.0 0.00 0.00 0.00 62 1011.8
20260903064603 63 159 3.0 11.0 0.00 0.00 0.00 62 1011.6
20260903064503 63 162 4.0 11.0 0.00 0.00 0.00 62 1011.5
20260903064403 63 213 3.0 11.0 0.00 0.00 0.00 62 1011.7
20260903064318 63 60 4.0 11.0 0.00 0.00 0.00 62 1011.8
20260903064303 63 42 4.0 14.0 0.00 0.00 0.00 62 1011.7
20260903064203 63 286 4.0 14.0 0.00 0.00 0.00 62 1011.9
20260903064003 63 177 5.0 14.0 0.00 0.00 0.00 62 1011.8
20260903063903 63 171 4.0 14.0 0.00 0.00 0.00 62 1011.8
20260903063803 63 200 6.0 14.0 0.00 0.00 0.00 62 1011.8
20260903063717 63 202 2.0 13.0 0.00 0.00 0.00 62 1011.8
20260903063703 63 201 2.0 13.0 0.00 0.00 0.00 62 1011.8
20260903063603 63 199 4.0 13.0 0.00 0.00 0.00 62 1011.7
20260903063417 63 209 4.0 11.0 0.00 0.00 0.00 62 1011.8
20260903063403 63 217 4.0 11.0 0.00 0.00 0.00 62 1011.8
20260903063303 64 204 6.0 11.0 0.00 0.00 0.00 62 1011.6
20260903063103 64 187 2.0 11.0 0.00 0.00 0.00 62 1011.8
20260903063003 64 167 4.0 11.0 0.00 0.00 0.00 62 1011.8
20260903062903 64 143 4.0 11.0 0.00 0.00 0.00 61 1011.6
20260903062803 64 141 3.0 11.0 0.00 0.00 0.00 62 1011.5
20260903062703 64 139 3.0 11.0 0.00 0.00 0.00 61 1011.7
20260903062603 64 131 4.0 11.0 0.00 0.00 0.00 61 1011.7
20260903062503 64 119 4.0 11.0 0.00 0.00 0.00 61 1011.7
20260903062417 64 113 4.0 13.0 0.00 0.00 0.00 61 1011.7
20260903062403 64 112 4.0 13.0 0.00 0.00 0.00 61 1011.7
20260903062306 64 131 6.0 15.0 0.00 0.00 0.00 61 1011.7
20260903062117 64 130 4.0 15.0 0.00 0.00 0.00 61 1011.6
20260903062103 64 162 4.0 15.0 0.00 0.00 0.00 61 1011.6
20260903062003 64 180 4.0 15.0 0.00 0.00 0.00 61 1011.6
20260903061803 64 198 4.0 13.0 0.00 0.00 0.00 60 1011.5
20260903061703 64 189 4.0 13.0 0.00 0.00 0.00 60 1011.5
20260903061618 64 174 4.0 13.0 0.00 0.00 0.00 60 1011.8
20260903061603 64 166 4.0 13.0 0.00 0.00 0.00 60 1011.8
20260903061503 64 129 5.0 13.0 0.00 0.00 0.00 60 1011.8
20260903061318 64 117 3.0 13.0 0.00 0.00 0.00 60 1011.3
20260903061303 64 125 3.0 13.0 0.00 0.00 0.00 60 1011.3
20260903061203 64 165 4.0 15.0 0.00 0.00 0.00 60 1011.6
20260903061003 64 190 2.0 15.0 0.00 0.00 0.00 60 1011.8
20260903060903 64 166 3.0 15.0 0.00 0.00 0.00 60 1011.5
20260903060803 64 182 5.0 15.0 0.00 0.00 0.00 59 1011.7
20260903060717 64 165 7.0 15.0 0.00 0.00 0.00 60 1011.8
20260903060703 64 164 3.0 14.0 0.00 0.00 0.00 60 1011.7
20260903060603 64 174 4.0 14.0 0.00 0.00 0.00 60 1011.8
20260903060403 64 173 4.0 14.0 0.00 0.00 0.00 60 1011.5
20260903060303 64 153 7.0 14.0 0.00 0.00 0.00 59 1011.6
20260903060218 64 155 4.0 13.0 0.00 0.00 0.00 59 1011.7
20260903060203 64 157 4.0 13.0 0.00 0.00 0.00 59 1011.7
20260903060103 64 137 5.0 14.0 0.00 0.00 0.00 59 1011.7
20260903055903 64 201 6.0 16.0 0.00 0.00 0.00 60 1011.7
20260903055803 64 215 6.0 16.0 0.00 0.00 0.00 60 1011.7
20260903055703 65 208 5.0 16.0 0.00 0.00 0.00 60 1011.7
20260903055603 65 209 4.0 16.0 0.00 0.00 0.00 60 1011.7
20260903055503 65 198 8.0 16.0 0.00 0.00 0.00 60 1011.5
20260903055403 65 169 8.0 14.0 0.00 0.00 0.00 60 1011.4
20260903055306 65 151 8.0 14.0 0.00 0.00 0.00 61 1011.7
20260903055203 65 153 6.0 14.0 0.00 0.00 0.00 61 1011.4
20260903055103 65 124 4.0 13.0 0.00 0.00 0.00 61 1011.2
20260903055003 65 142 7.0 13.0 0.00 0.00 0.00 62 1011.3
20260903054903 65 152 5.0 13.0 0.00 0.00 0.00 62 1011.4
20260903054803 65 176 4.0 13.0 0.00 0.00 0.00 62 1011.3
20260903054704 65 169 8.0 20.0 0.00 0.00 0.00 63 1011.2
20260903054603 65 186 4.0 20.0 0.00 0.00 0.00 63 1011.3
20260903054503 65 183 4.0 20.0 0.00 0.00 0.00 64 1011.3
20260903054403 65 187 4.0 20.0 0.00 0.00 0.00 64 1011.1
20260903054303 65 175 8.0 20.0 0.00 0.00 0.00 64 1011.1
20260903054218 65 171 10.0 20.0 0.00 0.00 0.00 64 1011.2
20260903054203 65 168 10.0 20.0 0.00 0.00 0.00 64 1011.2
20260903054117 65 162 4.0 13.0 0.00 0.00 0.00 66 1010.9
20260903054103 65 161 4.0 13.0 0.00 0.00 0.00 66 1010.9
20260903054017 65 169 4.0 13.0 0.00 0.00 0.00 66 1011.2
20260903053704 64 170 4.0 13.0 0.00 0.00 0.00 69 1011.2
20260903053603 64 158 5.0 13.0 0.00 0.00 0.00 69 1011.4
20260903053503 64 159 4.0 13.0 0.00 0.00 0.00 71 1011.1
20260903053403 64 189 4.0 13.0 0.00 0.00 0.00 72 1011.1
20260903053303 64 199 6.0 13.0 0.00 0.00 0.00 73 1011.2
20260903053203 64 219 5.0 11.0 0.00 0.00 0.00 74 1011.1
20260903053103 64 231 4.0 11.0 0.00 0.00 0.00 76 1011.2
20260903053003 64 225 4.0 11.0 0.00 0.00 0.00 77 1011.0
20260903052903 64 221 5.0 11.0 0.00 0.00 0.00 77 1011.2
20260903052803 64 216 4.0 11.0 0.00 0.00 0.00 78 1011.3
20260903052703 64 205 4.0 14.0 0.00 0.00 0.00 79 1011.0
20260903052618 64 202 5.0 14.0 0.00 0.00 0.00 80 1011.2
20260903052503 64 211 6.0 14.0 0.00 0.00 0.00 80 1011.1
20260903052306 64 196 6.0 14.0 0.00 0.00 0.00 81 1011.3
20260903052208 64 197 6.0 14.0 0.00 0.00 0.00 82 1011.3
20260903052103 64 211 6.0 11.0 0.00 0.00 0.00 82 1011.1
20260903051903 65 236 4.0 11.0 0.00 0.00 0.00 83 1011.2
20260903051803 65 262 5.0 11.0 0.00 0.00 0.00 83 1011.1
20260903051703 65 265 5.0 11.0 0.00 0.00 0.00 83 1011.2
20260903051603 65 264 3.0 11.0 0.00 0.00 0.00 83 1011.2
20260903051518 65 264 4.0 11.0 0.00 0.00 0.00 83 1011.0
20260903051503 65 257 4.0 11.0 0.00 0.00 0.00 83 1010.9
20260903051403 65 251 6.0 11.0 0.00 0.00 0.00 83 1011.0
20260903051317 65 231 6.0 11.0 0.00 0.00 0.00 83 1010.8
20260903051204 65 230 4.0 9.0 0.00 0.00 0.00 83 1011.1
20260903051116 65 240 4.0 8.0 0.00 0.00 0.00 83 1010.7
20260903051003 65 238 4.0 11.0 0.00 0.00 0.00 83 1010.7
20260903050804 65 250 3.0 11.0 0.00 0.00 0.00 83 1010.9
20260903050703 65 247 4.0 11.0 0.00 0.00 0.00 83 1010.7
20260903050603 65 239 4.0 11.0 0.00 0.00 0.00 84 1010.8
20260903050503 65 222 5.0 11.0 0.00 0.00 0.00 84 1010.6
20260903050403 65 207 4.0 8.0 0.00 0.00 0.00 84 1010.8
20260903050303 66 221 2.0 6.0 0.00 0.00 0.00 85 1010.9
20260903050203 66 218 2.0 6.0 0.00 0.00 0.00 85 1010.8
20260903050003 66 227 3.0 6.0 0.00 0.00 0.00 85 1010.5
20260903045903 66 240 2.0 6.0 0.00 0.00 0.00 85 1010.7
20260903045803 66 239 2.0 6.0 0.00 0.00 0.00 85 1010.4
20260903045703 66 237 2.0 6.0 0.00 0.00 0.00 86 1010.5
20260903045518 66 220 2.0 6.0 0.00 0.00 0.00 86 1010.8
20260903045503 66 219 2.0 8.0 0.00 0.00 0.00 86 1010.4
20260903045403 66 215 3.0 8.0 0.00 0.00 0.00 86 1010.7
20260903045319 66 214 3.0 8.0 0.00 0.00 0.00 86 1010.5
20260903045203 66 219 2.0 8.0 0.00 0.00 0.00 86 1010.6
20260903045005 66 235 2.0 8.0 0.00 0.00 0.00 86 1010.9
20260903044905 66 234 2.0 4.0 0.00 0.00 0.00 87 1011.2
20260903044803 66 233 2.0 9.0 0.00 0.00 0.00 87 1010.8
20260903044703 66 249 2.0 17.0 0.00 0.00 0.00 87 1011.0
20260903044606 65 245 2.0 17.0 0.00 0.00 0.00 87 1010.8
20260903044518 65 244 3.0 17.0 0.00 0.00 0.00 87 1010.7
20260903044503 65 246 3.0 17.0 0.00 0.00 0.00 87 1010.7
20260903044403 65 240 2.0 17.0 0.00 0.00 0.00 88 1010.8
20260903044203 65 235 8.0 17.0 0.00 0.00 0.00 89 1011.2
20260903044103 65 235 4.0 11.0 0.00 0.00 0.00 89 1011.1
20260903044003 65 235 7.0 11.0 0.00 0.00 0.00 89 1011.3
20260903043903 65 247 5.0 8.0 0.00 0.00 0.00 90 1011.0
20260903043803 65 243 4.0 6.0 0.00 0.00 0.00 90 1010.9
20260903043703 65 225 2.0 4.0 0.00 0.00 0.00 90 1010.4
20260903043603 65 225 1.0 2.0 0.00 0.00 0.00 90 1010.2
20260903043503 65 0 0.0 0.0 0.00 0.00 0.00 90 1009.8
20260903043403 65 0 0.0 0.0 0.00 0.00 0.00 90 1009.9
20260903043303 65 0 0.0 0.0 0.00 0.00 0.00 90 1009.9
20260903043203 65 0 0.0 0.0 0.00 0.00 0.00 90 1010.0
20260903043103 65 0 0.0 0.0 0.00 0.00 0.00 90 1009.9
20260903043003 65 0 0.0 0.0 0.00 0.00 0.00 90 1009.9
20260903042903 65 0 0.0 0.0 0.00 0.00 0.00 89 1009.9
20260903042818 65 0 0.0 0.0 0.00 0.00 0.00 90 1010.0
20260903042703 65 0 0.0 0.0 0.00 0.00 0.00 89 1009.8
20260903042503 65 0 0.0 0.0 0.00 0.00 0.00 89 1010.0
20260903042403 65 0 0.0 0.0 0.00 0.00 0.00 89 1010.0
20260903042306 65 0 0.0 0.0 0.00 0.00 0.00 89 1010.0
20260903042203 65 0 0.0 0.0 0.00 0.00 0.00 89 1010.1
20260903042103 65 0 0.0 0.0 0.00 0.00 0.00 89 1010.1
20260903042003 65 0 0.0 0.0 0.00 0.00 0.00 89 1010.0
20260903041903 65 0 0.0 0.0 0.00 0.00 0.00 89 1009.9
20260903041703 65 0 0.0 0.0 0.00 0.00 0.00 89 1010.2
20260903041603 65 0 0.0 0.0 0.00 0.00 0.00 89 1010.0
20260903041503 65 0 0.0 0.0 0.00 0.00 0.00 89 1009.9
20260903041303 65 0 0.0 0.0 0.00 0.00 0.00 89 1010.0
20260903041203 65 0 0.0 0.0 0.00 0.00 0.00 89 1009.7
20260903041118 65 0 0.0 0.0 0.00 0.00 0.00 89 1009.9
20260903041103 65 0 0.0 0.0 0.00 0.00 0.00 89 1009.8
20260903041003 65 0 0.0 0.0 0.00 0.00 0.00 89 1009.8
20260903040917 65 0 0.0 0.0 0.00 0.00 0.00 89 1009.8
20260903040603 65 0 0.0 0.0 0.00 0.00 0.00 89 1009.9
20260903040503 65 0 0.0 0.0 0.00 0.00 0.00 89 1010.0
20260903040403 65 90 0.0 2.0 0.00 0.00 0.00 89 1009.9
20260903040303 65 90 0.0 2.0 0.00 0.00 0.00 89 1010.1
20260903040203 65 90 0.0 2.0 0.00 0.00 0.00 89 1010.0
20260903040103 65 90 0.0 2.0 0.00 0.00 0.00 89 1009.9
20260903040003 65 90 0.0 2.0 0.00 0.00 0.00 89 1009.9
20260903035903 65 0 0.0 0.0 0.00 0.00 0.00 89 1010.1
20260903035803 65 0 0.0 0.0 0.00 0.00 0.00 90 1010.1
20260903035703 65 0 0.0 0.0 0.00 0.00 0.00 90 1010.2
20260903035603 65 0 0.0 0.0 0.00 0.00 0.00 90 1010.2
20260903035306 65 0 0.0 0.0 0.00 0.00 0.00 90 1010.3
20260903035203 65 0 0.0 0.0 0.00 0.00 0.00 90 1010.0
20260903035003 65 0 0.0 0.0 0.00 0.00 0.00 90 1010.1
20260903034903 64 0 0.0 0.0 0.00 0.00 0.00 90 1010.3
20260903034803 64 0 0.0 0.0 0.00 0.00 0.00 90 1010.1
20260903034603 64 90 0.0 2.0 0.00 0.00 0.00 90 1009.9
20260903034503 64 90 0.0 2.0 0.00 0.00 0.00 90 1010.1
20260903034303 64 90 0.0 2.0 0.00 0.00 0.00 90 1010.0
20260903034203 64 90 1.0 2.0 0.00 0.00 0.00 90 1010.1
20260903034103 64 90 1.0 2.0 0.00 0.00 0.00 90 1010.2
20260903034003 64 0 0.0 0.0 0.00 0.00 0.00 90 1010.1
20260903033803 64 0 0.0 0.0 0.00 0.00 0.00 90 1010.2
20260903033703 64 0 0.0 0.0 0.00 0.00 0.00 90 1010.2
20260903033603 64 0 0.0 0.0 0.00 0.00 0.00 90 1010.2
20260903033503 64 0 0.0 0.0 0.00 0.00 0.00 90 1010.4
20260903033403 64 0 0.0 0.0 0.00 0.00 0.00 90 1010.2
20260903033309 64 0 0.0 0.0 0.00 0.00 0.00 90 1010.3
20260903033103 64 0 0.0 0.0 0.00 0.00 0.00 90 1010.3
20260903033003 64 0 0.0 0.0 0.00 0.00 0.00 90 1009.9
20260903032903 64 0 0.0 0.0 0.00 0.00 0.00 90 1010.1
20260903032803 64 0 0.0 0.0 0.00 0.00 0.00 90 1010.3
20260903032703 64 0 0.0 0.0 0.00 0.00 0.00 90 1010.4
20260903032603 64 0 0.0 0.0 0.00 0.00 0.00 90 1010.3
20260903032503 64 0 0.0 0.0 0.00 0.00 0.00 90 1010.1
20260903032305 64 0 0.0 0.0 0.00 0.00 0.00 90 1010.2
20260903032203 64 0 0.0 0.0 0.00 0.00 0.00 90 1010.4
20260903032103 64 90 0.0 2.0 0.00 0.00 0.00 90 1010.1
20260903032003 64 90 0.0 2.0 0.00 0.00 0.00 90 1010.4
20260903031703 64 90 0.0 2.0 0.00 0.00 0.00 90 1010.1
20260903031603 64 90 0.0 2.0 0.00 0.00 0.00 90 1010.3
20260903031403 64 0 0.0 0.0 0.00 0.00 0.00 90 1010.2
20260903031303 64 0 0.0 0.0 0.00 0.00 0.00 90 1010.1
20260903031203 64 0 0.0 0.0 0.00 0.00 0.00 90 1010.3
20260903031103 64 90 0.0 2.0 0.00 0.00 0.00 90 1010.3
20260903031003 64 90 0.0 2.0 0.00 0.00 0.00 90 1010.3
20260903030903 64 90 0.0 2.0 0.00 0.00 0.00 90 1010.1
20260903030803 64 90 0.0 2.0 0.00 0.00 0.00 90 1010.0
20260903030703 64 90 1.0 2.0 0.00 0.00 0.00 90 1010.0
20260903030603 64 0 0.0 0.0 0.00 0.00 0.00 90 1010.0
20260903030503 64 90 0.0 2.0 0.00 0.00 0.00 90 1010.1
20260903030403 64 90 0.0 2.0 0.00 0.00 0.00 90 1010.0
20260903030103 64 90 0.0 2.0 0.00 0.00 0.00 90 1010.0
20260903030004 64 90 0.0 2.0 0.00 0.00 0.00 90 1009.9
20260903025903 64 90 0.0 2.0 0.00 0.00 0.00 90 1009.9
20260903025803 64 90 0.0 2.0 0.00 0.00 0.00 90 1010.0
20260903025603 64 90 0.0 2.0 0.00 0.00 0.00 90 1010.2
20260903025503 64 90 0.0 2.0 0.00 0.00 0.00 90 1009.9
20260903025403 64 90 0.0 2.0 0.00 0.00 0.00 90 1009.9
20260903025305 64 90 0.0 2.0 0.00 0.00 0.00 90 1009.9
20260903025203 64 90 0.0 2.0 0.00 0.00 0.00 90 1010.0
20260903025103 64 88 0.0 2.0 0.00 0.00 0.00 90 1010.1
20260903025003 64 84 1.0 2.0 0.00 0.00 0.00 90 1009.9
20260903024917 64 81 1.0 2.0 0.00 0.00 0.00 89 1009.9
20260903024903 64 79 1.0 2.0 0.00 0.00 0.00 89 1009.9
20260903024803 64 79 0.0 2.0 0.00 0.00 0.00 89 1009.9
20260903024718 64 77 1.0 2.0 0.00 0.00 0.00 89 1010.0
20260903024603 64 77 1.0 2.0 0.00 0.00 0.00 89 1010.0
20260903024517 64 83 0.0 2.0 0.00 0.00 0.00 89 1010.0
20260903024403 64 88 1.0 2.0 0.00 0.00 0.00 89 1010.0
20260903024203 64 80 0.0 2.0 0.00 0.00 0.00 89 1009.9
20260903024103 64 79 0.0 2.0 0.00 0.00 0.00 89 1010.1
20260903024003 64 79 2.0 2.0 0.00 0.00 0.00 89 1010.0
20260903023903 64 78 1.0 2.0 0.00 0.00 0.00 89 1010.0
20260903023803 64 84 1.0 4.0 0.00 0.00 0.00 89 1010.1
20260903023703 64 89 2.0 4.0 0.00 0.00 0.00 89 1009.8
20260903023603 64 85 0.0 4.0 0.00 0.00 0.00 89 1009.8
20260903023503 64 80 0.0 4.0 0.00 0.00 0.00 89 1009.7
20260903023403 64 76 1.0 4.0 0.00 0.00 0.00 89 1009.8
20260903023318 64 69 2.0 4.0 0.00 0.00 0.00 89 1009.8
20260903023303 64 65 2.0 4.0 0.00 0.00 0.00 89 1009.8
20260903023203 64 50 2.0 4.0 0.00 0.00 0.00 89 1009.7
20260903023003 64 38 2.0 4.0 0.00 0.00 0.00 88 1009.8
20260903022903 64 40 0.0 4.0 0.00 0.00 0.00 88 1009.8
20260903022803 64 56 0.0 4.0 0.00 0.00 0.00 88 1009.7
20260903022703 64 67 0.0 4.0 0.00 0.00 0.00 88 1009.7
20260903022603 64 71 2.0 4.0 0.00 0.00 0.00 88 1009.9
20260903022517 64 80 2.0 4.0 0.00 0.00 0.00 88 1009.7
20260903022504 64 82 2.0 4.0 0.00 0.00 0.00 88 1009.7
20260903022403 65 85 0.0 4.0 0.00 0.00 0.00 88 1009.8
20260903022203 65 87 1.0 2.0 0.00 0.00 0.00 88 1009.9
20260903022103 65 80 2.0 4.0 0.00 0.00 0.00 88 1009.8
20260903022003 65 73 0.0 4.0 0.00 0.00 0.00 88 1009.8
20260903021917 65 68 0.0 4.0 0.00 0.00 0.00 88 1010.0
20260903021903 65 67 0.0 4.0 0.00 0.00 0.00 88 1009.8
20260903021803 65 70 0.0 4.0 0.00 0.00 0.00 88 1009.6
20260903021603 65 78 1.0 4.0 0.00 0.00 0.00 88 1009.9
20260903021503 65 82 0.0 4.0 0.00 0.00 0.00 88 1009.9
20260903021403 65 68 0.0 4.0 0.00 0.00 0.00 87 1010.0
20260903021303 65 63 0.0 4.0 0.00 0.00 0.00 87 1010.1
20260903021203 65 61 2.0 4.0 0.00 0.00 0.00 87 1009.8
20260903021103 65 63 2.0 4.0 0.00 0.00 0.00 87 1009.9
20260903021003 65 57 1.0 2.0 0.00 0.00 0.00 87 1009.7
20260903020903 65 59 1.0 4.0 0.00 0.00 0.00 87 1009.9
20260903020803 65 70 2.0 4.0 0.00 0.00 0.00 87 1009.7
20260903020703 65 65 1.0 4.0 0.00 0.00 0.00 87 1009.7
20260903020603 65 59 2.0 4.0 0.00 0.00 0.00 87 1009.8
20260903020503 65 65 0.0 4.0 0.00 0.00 0.00 87 1009.9
20260903020418 65 69 2.0 4.0 0.00 0.00 0.00 87 1009.9
20260903020403 65 73 2.0 4.0 0.00 0.00 0.00 87 1009.9
20260903020303 65 75 2.0 4.0 0.00 0.00 0.00 87 1010.0
20260903020003 65 77 1.0 4.0 0.00 0.00 0.00 87 1010.2
20260903015903 65 75 2.0 4.0 0.00 0.00 0.00 87 1010.1
20260903015720 65 66 1.0 4.0 0.00 0.00 0.00 87 1010.1
20260903015703 65 64 1.0 4.0 0.00 0.00 0.00 87 1010.1
20260903015603 65 68 2.0 4.0 0.00 0.00 0.00 87 1010.1
20260903015403 65 63 1.0 4.0 0.00 0.00 0.00 87 1010.1
20260903015305 65 62 1.0 4.0 0.00 0.00 0.00 87 1010.1
20260903015203 65 70 1.0 4.0 0.00 0.00 0.00 87 1010.1
20260903015103 65 71 1.0 4.0 0.00 0.00 0.00 87 1009.8
20260903015003 65 67 2.0 4.0 0.00 0.00 0.00 87 1010.2
20260903014903 65 64 1.0 4.0 0.00 0.00 0.00 87 1009.9
20260903014817 65 65 1.0 4.0 0.00 0.00 0.00 87 1010.1
20260903014803 65 66 1.0 4.0 0.00 0.00 0.00 87 1010.1
20260903014703 65 69 1.0 4.0 0.00 0.00 0.00 87 1010.0
20260903014618 65 74 2.0 4.0 0.00 0.00 0.00 87 1010.1
20260903014503 65 83 2.0 4.0 0.00 0.00 0.00 87 1010.0
20260903014310 65 91 1.0 4.0 0.00 0.00 0.00 87 1010.2
20260903014203 65 82 2.0 4.0 0.00 0.00 0.00 87 1010.0
20260903014103 65 79 2.0 4.0 0.00 0.00 0.00 87 1010.0
20260903014003 65 78 1.0 4.0 0.00 0.00 0.00 86 1009.8
20260903013903 65 76 2.0 4.0 0.00 0.00 0.00 86 1009.9
20260903013803 65 77 2.0 4.0 0.00 0.00 0.00 86 1009.9
20260903013703 65 84 2.0 4.0 0.00 0.00 0.00 86 1010.1
20260903013603 65 84 0.0 4.0 0.00 0.00 0.00 86 1010.1
20260903013503 66 82 0.0 4.0 0.00 0.00 0.00 86 1010.1
20260903013403 66 73 1.0 4.0 0.00 0.00 0.00 86 1010.0
20260903013303 66 71 1.0 4.0 0.00 0.00 0.00 86 1010.3
20260903013203 66 75 0.0 4.0 0.00 0.00 0.00 86 1010.0
20260903013103 66 81 2.0 4.0 0.00 0.00 0.00 86 1009.9
20260903013003 66 90 2.0 4.0 0.00 0.00 0.00 85 1010.0
20260903012903 66 96 2.0 4.0 0.00 0.00 0.00 85 1009.9
20260903012817 66 94 1.0 4.0 0.00 0.00 0.00 85 1009.9
20260903012803 66 91 1.0 4.0 0.00 0.00 0.00 85 1009.9
20260903012703 66 84 1.0 4.0 0.00 0.00 0.00 85 1009.9
20260903012517 66 71 2.0 4.0 0.00 0.00 0.00 85 1009.7
20260903012503 66 70 2.0 4.0 0.00 0.00 0.00 85 1009.7
20260903012403 66 67 1.0 4.0 0.00 0.00 0.00 85 1009.6
20260903012103 66 77 2.0 4.0 0.00 0.00 0.00 85 1009.8
20260903012003 66 76 1.0 4.0 0.00 0.00 0.00 85 1009.6
20260903011903 66 72 2.0 4.0 0.00 0.00 0.00 85 1009.5
20260903011817 66 71 2.0 4.0 0.00 0.00 0.00 85 1009.6
20260903011803 66 73 2.0 4.0 0.00 0.00 0.00 85 1009.6
20260903011703 66 71 2.0 4.0 0.00 0.00 0.00 85 1009.7
20260903011503 66 73 1.0 4.0 0.00 0.00 0.00 85 1009.7
20260903011417 66 83 2.0 4.0 0.00 0.00 0.00 85 1009.8
20260903011403 66 87 2.0 4.0 0.00 0.00 0.00 85 1009.8
20260903011303 66 92 2.0 4.0 0.00 0.00 0.00 85 1009.7
20260903011103 66 99 2.0 4.0 0.00 0.00 0.00 84 1009.8
20260903011003 66 90 2.0 4.0 0.00 0.00 0.00 84 1009.6
20260903010903 66 85 1.0 4.0 0.00 0.00 0.00 84 1009.7
20260903010803 66 84 1.0 4.0 0.00 0.00 0.00 84 1009.9
20260903010703 66 78 2.0 4.0 0.00 0.00 0.00 84 1009.7
20260903010610 66 81 2.0 4.0 0.00 0.00 0.00 84 1009.6
20260903010503 66 89 1.0 4.0 0.00 0.00 0.00 84 1009.8
20260903010403 66 89 1.0 4.0 0.00 0.00 0.00 84 1009.8
20260903010303 66 94 1.0 4.0 0.00 0.00 0.00 84 1009.6
20260903010203 66 95 2.0 4.0 0.00 0.00 0.00 84 1009.6
20260903010117 66 90 2.0 4.0 0.00 0.00 0.00 83 1009.6
20260903010003 66 82 2.0 4.0 0.00 0.00 0.00 83 1009.7
20260903005803 66 67 2.0 4.0 0.00 0.00 0.00 83 1009.4
20260903005703 66 68 2.0 4.0 0.00 0.00 0.00 83 1009.6
20260903005604 66 68 2.0 4.0 0.00 0.00 0.00 83 1009.8
20260903005503 66 68 2.0 4.0 0.00 0.00 0.00 82 1009.7
20260903005403 66 66 1.0 4.0 0.00 0.00 0.00 82 1009.7
20260903005306 66 66 2.0 4.0 0.00 0.00 0.00 82 1009.6
20260903005218 66 63 1.0 4.0 0.00 0.00 0.00 82 1009.6
20260903005203 66 62 1.0 4.0 0.00 0.00 0.00 82 1009.6
20260903005103 67 59 1.0 4.0 0.00 0.00 0.00 82 1009.6
20260903004803 67 67 0.0 4.0 0.00 0.00 0.00 82 1009.6
20260903004703 67 65 0.0 4.0 0.00 0.00 0.00 82 1009.6
20260903004603 67 63 0.0 4.0 0.00 0.00 0.00 82 1009.4
20260903004503 67 64 0.0 4.0 0.00 0.00 0.00 82 1009.6
20260903004203 67 65 1.0 4.0 0.00 0.00 0.00 82 1009.6
20260903004103 67 67 1.0 4.0 0.00 0.00 0.00 81 1009.6
20260903004003 67 67 1.0 4.0 0.00 0.00 0.00 81 1009.7
20260903003803 67 67 1.0 2.0 0.00 0.00 0.00 81 1009.6
20260903003704 67 61 1.0 4.0 0.00 0.00 0.00 81 1009.6
20260903003603 67 56 1.0 4.0 0.00 0.00 0.00 81 1009.6
20260903003503 67 56 0.0 4.0 0.00 0.00 0.00 81 1009.5
20260903003403 67 56 1.0 4.0 0.00 0.00 0.00 81 1009.5
20260903003303 67 56 1.0 4.0 0.00 0.00 0.00 81 1009.5
20260903003203 67 59 2.0 4.0 0.00 0.00 0.00 81 1009.4
20260903003103 67 67 1.0 2.0 0.00 0.00 0.00 81 1009.6
20260903003003 67 67 1.0 2.0 0.00 0.00 0.00 81 1009.3
20260903002903 67 67 0.0 2.0 0.00 0.00 0.00 81 1009.5
20260903002803 67 67 1.0 2.0 0.00 0.00 0.00 81 1009.2
20260903002703 67 67 1.0 2.0 0.00 0.00 0.00 80 1009.2
20260903002603 67 67 1.0 2.0 0.00 0.00 0.00 80 1009.6
20260903002505 67 67 1.0 2.0 0.00 0.00 0.00 80 1009.2
20260903002403 67 67 1.0 2.0 0.00 0.00 0.00 80 1009.4
20260903002306 67 67 1.0 2.0 0.00 0.00 0.00 80 1009.5
20260903002204 67 67 1.0 2.0 0.00 0.00 0.00 80 1009.6
20260903002103 67 67 2.0 2.0 0.00 0.00 0.00 80 1009.5
20260903002003 67 67 1.0 2.0 0.00 0.00 0.00 80 1009.5
20260903001903 67 67 1.0 2.0 0.00 0.00 0.00 80 1009.6
20260903001704 67 67 1.0 2.0 0.00 0.00 0.00 80 1009.6
20260903001603 67 67 2.0 2.0 0.00 0.00 0.00 80 1009.5
20260903001503 67 67 2.0 4.0 0.00 0.00 0.00 80 1009.3
20260903001403 67 67 1.0 4.0 0.00 0.00 0.00 80 1009.4
20260903001303 67 67 0.0 4.0 0.00 0.00 0.00 80 1009.3
20260903001203 67 67 0.0 4.0 0.00 0.00 0.00 80 1009.4
20260903001103 67 67 1.0 4.0 0.00 0.00 0.00 80 1009.3
20260903001003 67 67 2.0 4.0 0.00 0.00 0.00 80 1009.1
20260903000903 67 67 2.0 4.0 0.00 0.00 0.00 80 1009.3
20260903000803 67 67 2.0 4.0 0.00 0.00 0.00 80 1009.3
20260903000703 67 67 2.0 4.0 0.00 0.00 0.00 80 1009.3
20260903000503 68 67 1.0 2.0 0.00 0.00 0.00 79 1009.3
20260903000405 68 67 1.0 2.0 0.00 0.00 0.00 79 1009.5
20260903000303 68 67 1.0 2.0 0.00 0.00 0.00 79 1009.4
20260903000204 68 67 1.0 2.0 0.00 0.00 0.00 79 1009.2
20260903000103 68 67 1.0 2.0 0.00 0.00 0.00 79 1009.3
20260903000003 68 67 2.0 2.0 0.00 0.00 0.00 79 1009.3
20260902235703 68 59 0.0 2.0 0.00 0.00 0.00 79 1009.3
20260902235618 68 57 0.0 2.0 0.00 0.00 0.00 79 1009.2
20260902235603 68 56 0.0 2.0 0.00 0.00 0.00 79 1009.2
20260902235518 68 53 1.0 2.0 0.00 0.00 0.00 79 1009.1
20260902235503 68 52 2.0 2.0 0.00 0.00 0.00 79 1009.2
20260902235203 68 45 2.0 2.0 0.00 0.00 0.00 79 1009.1
20260902235104 68 45 2.0 2.0 0.00 0.00 0.00 79 1009.2
20260902235003 68 45 1.0 2.0 0.00 0.00 0.00 79 1009.0
20260902234903 68 45 1.0 2.0 0.00 0.00 0.00 79 1009.0
20260902234803 68 38 1.0 2.0 0.00 0.00 0.00 79 1009.1
20260902234717 68 33 1.0 4.0 0.00 0.00 0.00 79 1008.9
20260902234703 68 31 2.0 4.0 0.00 0.00 0.00 79 1008.9
20260902234603 68 24 1.0 4.0 0.00 0.00 0.00 79 1008.9
20260902234403 68 6 1.0 4.0 0.00 0.00 0.00 78 1008.7
20260902234317 68 4 2.0 4.0 0.00 0.00 0.00 78 1008.8
20260902234303 68 4 2.0 4.0 0.00 0.00 0.00 78 1008.9
20260902234203 68 360 2.0 4.0 0.00 0.00 0.00 78 1008.8
20260902234003 68 7 2.0 4.0 0.00 0.00 0.00 78 1008.8
20260902233903 68 12 3.0 4.0 0.00 0.00 0.00 78 1008.9
20260902233803 68 15 2.0 4.0 0.00 0.00 0.00 78 1008.9
20260902233703 68 17 2.0 4.0 0.00 0.00 0.00 78 1008.9
20260902233603 69 21 1.0 4.0 0.00 0.00 0.00 78 1008.8
20260902233503 69 28 2.0 4.0 0.00 0.00 0.00 77 1008.9
20260902233403 69 41 2.0 4.0 0.00 0.00 0.00 77 1008.8
20260902233303 69 45 2.0 4.0 0.00 0.00 0.00 77 1008.9
20260902233203 69 52 2.0 4.0 0.00 0.00 0.00 77 1008.9
20260902233103 69 51 1.0 4.0 0.00 0.00 0.00 76 1008.7
20260902233003 69 41 2.0 4.0 0.00 0.00 0.00 76 1008.9
20260902232918 69 35 2.0 4.0 0.00 0.00 0.00 76 1008.8
20260902232903 69 33 2.0 4.0 0.00 0.00 0.00 76 1008.8
20260902232803 69 34 2.0 4.0 0.00 0.00 0.00 76 1008.7
20260902232603 69 34 2.0 4.0 0.00 0.00 0.00 75 1008.8
20260902232504 70 29 2.0 4.0 0.00 0.00 0.00 75 1008.8
20260902232403 69 19 2.0 4.0 0.00 0.00 0.00 75 1008.7
20260902232306 70 9 1.0 4.0 0.00 0.00 0.00 75 1008.7
20260902232203 70 3 2.0 4.0 0.00 0.00 0.00 75 1008.8
20260902232104 70 357 1.0 4.0 0.00 0.00 0.00 75 1008.6
20260902232003 70 360 2.0 4.0 0.00 0.00 0.00 75 1008.8
20260902231903 70 8 4.0 6.0 0.00 0.00 0.00 74 1008.7
20260902231803 70 9 4.0 6.0 0.00 0.00 0.00 74 1008.9
20260902231703 70 10 3.0 6.0 0.00 0.00 0.00 74 1008.7
20260902231617 70 11 3.0 6.0 0.00 0.00 0.00 75 1008.8
20260902231603 70 13 3.0 6.0 0.00 0.00 0.00 75 1008.8
20260902231503 70 12 3.0 6.0 0.00 0.00 0.00 74 1008.7
20260902231303 70 10 2.0 4.0 0.00 0.00 0.00 74 1008.7
20260902231203 70 9 3.0 4.0 0.00 0.00 0.00 74 1008.6
20260902231103 70 14 2.0 7.0 0.00 0.00 0.00 74 1008.5
20260902231003 70 16 2.0 7.0 0.00 0.00 0.00 74 1008.8
20260902230903 70 20 2.0 7.0 0.00 0.00 0.00 74 1008.7
20260902230803 70 20 3.0 7.0 0.00 0.00 0.00 74 1008.8
20260902230717 70 26 2.0 7.0 0.00 0.00 0.00 74 1008.7
20260902230603 70 21 4.0 7.0 0.00 0.00 0.00 74 1008.7
20260902230403 70 8 4.0 6.0 0.00 0.00 0.00 74 1008.7
20260902230303 70 359 4.0 7.0 0.00 0.00 0.00 73 1008.5
20260902230203 70 354 3.0 7.0 0.00 0.00 0.00 73 1008.4
20260902230118 70 356 3.0 7.0 0.00 0.00 0.00 73 1008.3
20260902230003 70 358 3.0 7.0 0.00 0.00 0.00 73 1008.4
20260902225803 70 358 4.0 7.0 0.00 0.00 0.00 74 1008.4
20260902225703 70 1 1.0 6.0 0.00 0.00 0.00 73 1008.5
20260902225603 70 2 3.0 6.0 0.00 0.00 0.00 73 1008.5
20260902225504 71 1 4.0 7.0 0.00 0.00 0.00 73 1008.6
20260902225404 71 358 3.0 7.0 0.00 0.00 0.00 73 1008.5
20260902225306 71 359 4.0 7.0 0.00 0.00 0.00 73 1008.5
20260902225217 71 358 4.0 7.0 0.00 0.00 0.00 73 1008.3
20260902225203 71 357 4.0 7.0 0.00 0.00 0.00 73 1008.3
20260902225103 71 355 4.0 7.0 0.00 0.00 0.00 73 1008.5
20260902224903 71 360 3.0 7.0 0.00 0.00 0.00 73 1008.4
20260902224803 71 1 4.0 7.0 0.00 0.00 0.00 73 1008.5
20260902224703 71 1 2.0 7.0 0.00 0.00 0.00 73 1008.6
20260902224603 71 1 4.0 7.0 0.00 0.00 0.00 73 1008.4
20260902224503 71 357 4.0 7.0 0.00 0.00 0.00 73 1008.6
20260902224403 71 360 4.0 8.0 0.00 0.00 0.00 73 1008.6
20260902224303 71 360 3.0 8.0 0.00 0.00 0.00 73 1008.4
20260902224203 71 355 3.0 8.0 0.00 0.00 0.00 73 1008.5
20260902224103 71 348 3.0 8.0 0.00 0.00 0.00 73 1008.5
20260902224004 71 354 3.0 8.0 0.00 0.00 0.00 73 1008.5
20260902223903 71 350 2.0 6.0 0.00 0.00 0.00 73 1008.4
20260902223818 71 351 4.0 7.0 0.00 0.00 0.00 73 1008.4
20260902223803 71 353 4.0 7.0 0.00 0.00 0.00 73 1008.4
20260902223703 71 358 3.0 7.0 0.00 0.00 0.00 73 1008.6
20260902223617 71 4 2.0 7.0 0.00 0.00 0.00 73 1008.4
20260902223503 71 4 4.0 7.0 0.00 0.00 0.00 72 1008.7
20260902223418 71 7 4.0 7.0 0.00 0.00 0.00 72 1008.5
20260902223303 71 7 4.0 7.0 0.00 0.00 0.00 72 1008.5
20260902223217 71 5 4.0 7.0 0.00 0.00 0.00 72 1008.6
20260902223103 71 4 3.0 6.0 0.00 0.00 0.00 72 1008.7
20260902222903 71 354 3.0 6.0 0.00 0.00 0.00 72 1008.6
20260902222803 71 354 3.0 6.0 0.00 0.00 0.00 72 1008.6
20260902222703 71 3 3.0 6.0 0.00 0.00 0.00 71 1008.6
20260902222603 72 360 3.0 7.0 0.00 0.00 0.00 71 1008.6
20260902222503 72 358 3.0 7.0 0.00 0.00 0.00 71 1008.5
20260902222403 72 356 3.0 7.0 0.00 0.00 0.00 71 1008.3
20260902222317 72 354 2.0 7.0 0.00 0.00 0.00 71 1008.5
20260902222306 72 356 2.0 7.0 0.00 0.00 0.00 71 1008.5
20260902222203 72 351 2.0 9.0 0.00 0.00 0.00 71 1008.5
20260902222003 72 342 4.0 9.0 0.00 0.00 0.00 71 1008.5
20260902221903 72 341 4.0 9.0 0.00 0.00 0.00 71 1008.4
20260902221808 72 341 4.0 9.0 0.00 0.00 0.00 70 1008.5
20260902221716 72 334 5.0 9.0 0.00 0.00 0.00 70 1008.6
20260902221703 72 336 5.0 9.0 0.00 0.00 0.00 70 1008.6
20260902221603 72 341 3.0 8.0 0.00 0.00 0.00 70 1008.4
20260902221403 72 353 2.0 8.0 0.00 0.00 0.00 70 1008.5
20260902221303 72 355 3.0 8.0 0.00 0.00 0.00 70 1008.6
20260902221203 72 359 4.0 8.0 0.00 0.00 0.00 70 1008.5
20260902221103 72 1 4.0 6.0 0.00 0.00 0.00 70 1008.5
20260902221003 72 358 4.0 6.0 0.00 0.00 0.00 70 1008.6
20260902220904 72 355 2.0 7.0 0.00 0.00 0.00 70 1008.5
20260902220803 72 3 2.0 7.0 0.00 0.00 0.00 70 1008.4
20260902220703 72 4 3.0 7.0 0.00 0.00 0.00 70 1008.6
20260902220603 72 4 4.0 7.0 0.00 0.00 0.00 70 1008.6
20260902220503 72 5 2.0 7.0 0.00 0.00 0.00 70 1008.5
20260902220403 72 1 4.0 8.0 0.00 0.00 0.00 70 1008.6
20260902220303 72 350 3.0 8.0 0.00 0.00 0.00 70 1008.3
20260902220203 72 346 2.0 8.0 0.00 0.00 0.00 70 1008.3
20260902220003 73 348 4.0 9.0 0.00 0.00 0.00 70 1008.4
20260902215903 73 345 4.0 9.0 0.00 0.00 0.00 69 1008.5
20260902215803 73 352 3.0 9.0 0.00 0.00 0.00 70 1008.4
20260902215703 73 357 4.0 9.0 0.00 0.00 0.00 69 1008.3
20260902215603 73 356 6.0 9.0 0.00 0.00 0.00 69 1008.2
20260902215503 73 358 5.0 8.0 0.00 0.00 0.00 69 1008.3
20260902215403 73 6 4.0 7.0 0.00 0.00 0.00 69 1008.5
20260902215306 73 4 4.0 11.0 0.00 0.00 0.00 69 1008.5
20260902215204 73 359 3.0 11.0 0.00 0.00 0.00 69 1008.5
20260902215118 73 355 2.0 11.0 0.00 0.00 0.00 69 1008.3
20260902215103 73 356 4.0 11.0 0.00 0.00 0.00 69 1008.5
20260902215003 73 352 4.0 11.0 0.00 0.00 0.00 69 1008.4
20260902214803 73 351 5.0 14.0 0.00 0.00 0.00 69 1008.6
20260902214718 73 358 4.0 14.0 0.00 0.00 0.00 69 1008.4
20260902214703 73 360 4.0 14.0 0.00 0.00 0.00 69 1008.6
20260902214603 73 3 6.0 14.0 0.00 0.00 0.00 69 1008.4
20260902214403 73 2 5.0 14.0 0.00 0.00 0.00 68 1008.4
20260902214303 73 5 4.0 14.0 0.00 0.00 0.00 68 1008.4
20260902214203 73 351 4.0 7.0 0.00 0.00 0.00 68 1008.4
20260902214103 73 346 4.0 11.0 0.00 0.00 0.00 68 1008.5
20260902214003 73 349 5.0 11.0 0.00 0.00 0.00 68 1008.4
20260902213903 73 346 3.0 11.0 0.00 0.00 0.00 68 1008.4
20260902213803 73 340 4.0 11.0 0.00 0.00 0.00 68 1008.4
20260902213718 74 343 4.0 11.0 0.00 0.00 0.00 68 1008.6
20260902213703 74 344 4.0 11.0 0.00 0.00 0.00 68 1008.6
20260902213603 74 344 5.0 11.0 0.00 0.00 0.00 68 1008.5
20260902213403 74 354 4.0 11.0 0.00 0.00 0.00 68 1008.4
20260902213303 74 351 4.0 11.0 0.00 0.00 0.00 68 1008.5
20260902213203 74 355 4.0 11.0 0.00 0.00 0.00 68 1008.3
20260902213103 74 355 2.0 11.0 0.00 0.00 0.00 68 1008.7
20260902213003 74 356 5.0 11.0 0.00 0.00 0.00 68 1008.4
20260902212903 74 355 5.0 11.0 0.00 0.00 0.00 68 1008.5
20260902212803 74 360 6.0 11.0 0.00 0.00 0.00 68 1008.7
20260902212703 74 4 8.0 11.0 0.00 0.00 0.00 68 1008.4
20260902212603 74 8 5.0 9.0 0.00 0.00 0.00 68 1008.5
20260902212503 74 1 4.0 9.0 0.00 0.00 0.00 67 1008.6
20260902212403 74 1 4.0 9.0 0.00 0.00 0.00 67 1008.5
20260902212305 74 358 4.0 9.0 0.00 0.00 0.00 67 1008.5
20260902212203 74 341 4.0 11.0 0.00 0.00 0.00 67 1008.6
20260902212103 74 346 4.0 11.0 0.00 0.00 0.00 67 1008.5
20260902212003 74 345 4.0 11.0 0.00 0.00 0.00 67 1008.4
20260902211903 74 346 4.0 13.0 0.00 0.00 0.00 67 1008.5
20260902211803 74 344 4.0 13.0 0.00 0.00 0.00 67 1008.4
20260902211703 74 353 6.0 13.0 0.00 0.00 0.00 67 1008.5
20260902211603 74 350 4.0 13.0 0.00 0.00 0.00 67 1008.4
20260902211517 74 351 4.0 13.0 0.00 0.00 0.00 67 1008.5
20260902211503 74 355 5.0 13.0 0.00 0.00 0.00 67 1008.6
20260902211403 74 351 10.0 13.0 0.00 0.00 0.00 67 1008.8
20260902211205 74 11 4.0 11.0 0.00 0.00 0.00 67 1008.7
20260902211117 74 11 5.0 11.0 0.00 0.00 0.00 67 1008.8
20260902211103 74 11 4.0 11.0 0.00 0.00 0.00 67 1008.7
20260902211003 74 12 3.0 11.0 0.00 0.00 0.00 67 1008.7
20260902210803 74 12 4.0 11.0 0.00 0.00 0.00 67 1008.7
20260902210703 74 356 4.0 11.0 0.00 0.00 0.00 67 1008.6
20260902210619 74 352 5.0 11.0 0.00 0.00 0.00 67 1008.7
20260902210603 74 347 5.0 11.0 0.00 0.00 0.00 67 1008.7
20260902210503 74 339 6.0 11.0 0.00 0.00 0.00 67 1008.5
20260902210303 74 332 7.0 11.0 0.00 0.00 0.00 67 1008.5
20260902210203 75 335 7.0 13.0 0.00 0.00 0.00 66 1008.6
20260902210117 75 339 6.0 15.0 0.00 0.00 0.00 66 1008.5
20260902210103 75 342 6.0 15.0 0.00 0.00 0.00 66 1008.5
20260902210003 75 342 6.0 15.0 0.00 0.00 0.00 66 1008.6
20260902205803 75 342 7.0 15.0 0.00 0.00 0.00 66 1008.5
20260902205703 75 357 5.0 15.0 0.00 0.00 0.00 66 1008.6
20260902205616 75 356 5.0 15.0 0.00 0.00 0.00 66 1008.6
20260902205603 75 354 5.0 15.0 0.00 0.00 0.00 66 1008.6
20260902205503 75 358 4.0 17.0 0.00 0.00 0.00 65 1008.6
20260902205418 75 356 3.0 17.0 0.00 0.00 0.00 65 1008.5
20260902205306 75 354 3.0 17.0 0.00 0.00 0.00 65 1008.5
20260902205103 75 354 6.0 17.0 0.00 0.00 0.00 66 1008.6
20260902205004 75 357 11.0 17.0 0.00 0.00 0.00 65 1008.8
20260902204903 75 356 11.0 17.0 0.00 0.00 0.00 65 1008.8
20260902204803 75 359 5.0 13.0 0.00 0.00 0.00 65 1008.7
20260902204703 75 353 7.0 11.0 0.00 0.00 0.00 65 1008.7
20260902204603 75 353 4.0 13.0 0.00 0.00 0.00 65 1008.7
20260902204517 75 350 7.0 13.0 0.00 0.00 0.00 65 1008.7
20260902204503 75 347 7.0 13.0 0.00 0.00 0.00 65 1008.7
20260902204403 75 350 7.0 13.0 0.00 0.00 0.00 65 1008.7
20260902204203 75 348 4.0 13.0 0.00 0.00 0.00 64 1008.7
20260902204103 75 346 6.0 13.0 0.00 0.00 0.00 64 1009.0
20260902204003 76 354 5.0 14.0 0.00 0.00 0.00 64 1008.9
20260902203916 76 357 3.0 14.0 0.00 0.00 0.00 64 1008.7
20260902203903 75 357 4.0 14.0 0.00 0.00 0.00 64 1008.9
20260902203803 75 356 4.0 15.0 0.00 0.00 0.00 64 1008.4
20260902203603 75 360 6.0 15.0 0.00 0.00 0.00 65 1008.8
20260902203503 75 356 8.0 15.0 0.00 0.00 0.00 64 1008.9
20260902203417 75 355 8.0 16.0 0.00 0.00 0.00 64 1008.9
20260902203403 75 354 8.0 16.0 0.00 0.00 0.00 64 1008.9
20260902203303 75 352 10.0 16.0 0.00 0.00 0.00 64 1008.7
20260902203103 75 350 7.0 16.0 0.00 0.00 0.00 63 1008.8
20260902203003 75 350 8.0 16.0 0.00 0.00 0.00 63 1009.0
20260902202903 75 356 8.0 16.0 0.00 0.00 0.00 63 1008.8
20260902202817 75 354 6.0 11.0 0.00 0.00 0.00 63 1008.8
20260902202803 75 353 6.0 11.0 0.00 0.00 0.00 63 1008.8
20260902202703 75 358 5.0 11.0 0.00 0.00 0.00 63 1009.0
20260902202503 76 3 8.0 14.0 0.00 0.00 0.00 63 1008.7
20260902202403 76 3 8.0 14.0 0.00 0.00 0.00 63 1008.8
20260902202306 76 9 3.0 14.0 0.00 0.00 0.00 62 1008.9
20260902202203 76 357 2.0 14.0 0.00 0.00 0.00 62 1008.9
20260902202103 76 350 6.0 14.0 0.00 0.00 0.00 62 1008.9
20260902202004 76 355 6.0 13.0 0.00 0.00 0.00 62 1009.1
20260902201904 76 353 4.0 13.0 0.00 0.00 0.00 62 1008.8
20260902201803 76 352 5.0 13.0 0.00 0.00 0.00 62 1009.0
20260902201703 76 354 5.0 11.0 0.00 0.00 0.00 62 1008.9
20260902201603 76 356 4.0 11.0 0.00 0.00 0.00 62 1009.0
20260902201503 76 350 4.0 11.0 0.00 0.00 0.00 62 1008.9
20260902201410 76 351 8.0 14.0 0.00 0.00 0.00 62 1009.1
20260902201303 76 352 6.0 17.0 0.00 0.00 0.00 62 1009.0
20260902201203 76 347 6.0 17.0 0.00 0.00 0.00 62 1009.0
20260902201103 76 341 6.0 17.0 0.00 0.00 0.00 62 1009.1
20260902201003 76 348 4.0 17.0 0.00 0.00 0.00 62 1008.9
20260902200903 76 350 8.0 17.0 0.00 0.00 0.00 62 1008.9
20260902200803 76 346 11.0 20.0 0.00 0.00 0.00 62 1009.0
20260902200709 76 1 4.0 20.0 0.00 0.00 0.00 62 1009.0
20260902200603 76 9 7.0 20.0 0.00 0.00 0.00 62 1009.0
20260902200503 76 5 7.0 20.0 0.00 0.00 0.00 62 1009.1
20260902200403 76 4 6.0 20.0 0.00 0.00 0.00 62 1009.1
20260902200305 76 7 7.0 16.0 0.00 0.00 0.00 63 1009.1
20260902200103 75 359 8.0 16.0 0.00 0.00 0.00 63 1008.9
20260902200004 75 10 8.0 14.0 0.00 0.00 0.00 63 1009.1
20260902195903 76 358 6.0 14.0 0.00 0.00 0.00 63 1009.1
20260902195603 75 325 8.0 17.0 0.00 0.00 0.00 63 1009.1
20260902195503 75 320 10.0 17.0 0.00 0.00 0.00 62 1009.0
20260902195417 76 318 7.0 17.0 0.00 0.00 0.00 62 1009.0
20260902195403 76 321 7.0 17.0 0.00 0.00 0.00 62 1009.0
20260902195306 76 333 8.0 17.0 0.00 0.00 0.00 62 1009.0
20260902195103 75 341 9.0 16.0 0.00 0.00 0.00 63 1009.1
20260902195018 75 339 10.0 16.0 0.00 0.00 0.00 63 1009.1
20260902195003 75 345 10.0 16.0 0.00 0.00 0.00 63 1009.1
20260902194903 76 350 7.0 16.0 0.00 0.00 0.00 63 1009.1
20260902194703 75 1 9.0 16.0 0.00 0.00 0.00 63 1009.0
20260902194618 75 4 6.0 14.0 0.00 0.00 0.00 63 1009.0
20260902194603 75 1 6.0 14.0 0.00 0.00 0.00 63 1009.0
20260902194503 75 357 6.0 15.0 0.00 0.00 0.00 63 1009.2
20260902194303 76 355 5.0 15.0 0.00 0.00 0.00 63 1009.0
20260902194203 76 352 4.0 15.0 0.00 0.00 0.00 63 1009.3
20260902194103 75 348 7.0 15.0 0.00 0.00 0.00 63 1009.1
20260902194003 75 340 10.0 15.0 0.00 0.00 0.00 63 1009.1
20260902193903 76 334 6.0 14.0 0.00 0.00 0.00 63 1009.2
20260902193803 76 341 6.0 11.0 0.00 0.00 0.00 63 1009.0
20260902193703 76 329 6.0 11.0 0.00 0.00 0.00 63 1009.1
20260902193618 76 329 5.0 13.0 0.00 0.00 0.00 64 1009.1
20260902193603 76 331 5.0 13.0 0.00 0.00 0.00 64 1009.1
20260902193503 76 328 2.0 16.0 0.00 0.00 0.00 64 1009.1
20260902193318 76 333 5.0 16.0 0.00 0.00 0.00 64 1009.3
20260902193303 76 336 5.0 16.0 0.00 0.00 0.00 64 1009.3
20260902193203 75 340 7.0 16.0 0.00 0.00 0.00 64 1009.2
20260902193003 76 341 4.0 17.0 0.00 0.00 0.00 64 1009.3
20260902192903 76 336 5.0 17.0 0.00 0.00 0.00 64 1009.2
20260902192803 75 336 3.0 17.0 0.00 0.00 0.00 65 1009.1
20260902192703 75 338 8.0 17.0 0.00 0.00 0.00 65 1009.0
20260902192618 75 343 11.0 17.0 0.00 0.00 0.00 64 1009.2
20260902192603 75 342 11.0 17.0 0.00 0.00 0.00 64 1009.2
20260902192503 75 346 8.0 16.0 0.00 0.00 0.00 65 1009.1
20260902192306 76 348 4.0 15.0 0.00 0.00 0.00 64 1009.1
20260902192218 75 344 6.0 15.0 0.00 0.00 0.00 64 1009.3
20260902192203 75 345 6.0 15.0 0.00 0.00 0.00 64 1009.3
20260902192103 75 348 9.0 15.0 0.00 0.00 0.00 64 1009.3
20260902191908 75 356 8.0 23.0 0.00 0.00 0.00 65 1009.2
20260902191817 75 352 5.0 23.0 0.00 0.00 0.00 65 1009.3
20260902191803 75 349 5.0 23.0 0.00 0.00 0.00 65 1009.3
20260902191703 75 345 9.0 23.0 0.00 0.00 0.00 65 1009.3
20260902191503 74 336 12.0 23.0 0.00 0.00 0.00 65 1009.2
20260902191403 74 335 15.0 23.0 0.00 0.00 0.00 65 1009.5
20260902191303 75 348 11.0 21.0 0.00 0.00 0.00 65 1009.5
20260902191203 75 343 8.0 21.0 0.00 0.00 0.00 65 1009.3
20260902191103 75 331 12.0 21.0 0.00 0.00 0.00 65 1009.4
20260902191003 74 324 12.0 21.0 0.00 0.00 0.00 64 1009.3
20260902190903 75 324 8.0 20.0 0.00 0.00 0.00 65 1009.4
20260902190803 75 328 8.0 22.0 0.00 0.00 0.00 65 1009.5
20260902190709 75 340 12.0 22.0 0.00 0.00 0.00 64 1009.5
20260902190603 75 350 12.0 22.0 0.00 0.00 0.00 64 1009.4
20260902190503 75 8 8.0 22.0 0.00 0.00 0.00 64 1009.8
20260902190403 75 4 8.0 22.0 0.00 0.00 0.00 65 1009.4
20260902190303 75 349 9.0 21.0 0.00 0.00 0.00 64 1009.7
20260902190203 75 342 6.0 21.0 0.00 0.00 0.00 64 1009.5
20260902190103 75 351 8.0 21.0 0.00 0.00 0.00 64 1009.4
20260902190003 75 350 6.0 21.0 0.00 0.00 0.00 63 1009.5
20260902185903 75 350 8.0 21.0 0.00 0.00 0.00 64 1009.7
20260902185803 75 355 11.0 21.0 0.00 0.00 0.00 64 1009.4
20260902185717 75 351 11.0 21.0 0.00 0.00 0.00 64 1009.5
20260902185703 75 354 11.0 21.0 0.00 0.00 0.00 64 1009.5
20260902185603 75 350 11.0 16.0 0.00 0.00 0.00 64 1009.5
20260902185518 75 352 8.0 16.0 0.00 0.00 0.00 64 1009.6
20260902185403 75 346 11.0 18.0 0.00 0.00 0.00 64 1009.6
20260902185218 76 348 6.0 18.0 0.00 0.00 0.00 63 1009.5
20260902185204 76 347 6.0 18.0 0.00 0.00 0.00 63 1009.5
20260902185103 76 357 5.0 18.0 0.00 0.00 0.00 64 1009.6
20260902184903 75 341 7.0 22.0 0.00 0.00 0.00 64 1009.5
20260902184803 75 348 7.0 22.0 0.00 0.00 0.00 64 1009.6
20260902184703 75 356 8.0 22.0 0.00 0.00 0.00 64 1009.6
20260902184618 75 345 8.0 22.0 0.00 0.00 0.00 65 1009.7
20260902184603 75 343 8.0 22.0 0.00 0.00 0.00 65 1009.7
20260902184503 74 342 13.0 22.0 0.00 0.00 0.00 65 1009.5
20260902184303 74 340 8.0 20.0 0.00 0.00 0.00 66 1010.0